Baseball 板


LINE

Baltimore Seattle Orioles Lake Jones Parra Mariners 1 Machado \  Cruz Jackson Gutierrez / 1 Marte Parra \   Hardy Schoop  /  2 SeagerJones Marte Cano /   3 CruzDavis Machado Davis   4 CanoWieters Seager Montero  5 GutierrezSchoop     \ 陈伟殷 /      6 JacksonLake DH \ Nuno / DH    7 MonteroHardy Wieters \   / Trumbo   8 Trumbo Joseph         \ /         9 Zunino Joseph Zunino 民视 FSHD & 3HD直播 10点开打 --



※ 发信站: 批踢踢实业坊(ptt.cc), 来自: 36.229.126.212
※ 文章网址: https://webptt.com/cn.aspx?n=bbs/Baseball/M.1439254988.A.A67.html
1F:推 clywin123: 推 08/11 09:03
2F:推 harrychen413: 呜呜 要补习不能看QQ 08/11 09:09
3F:推 A0911353036: 推 08/11 09:11
4F:推 cdpicker: 请文陈伟殷今天是本季第一次对上前队友吗 Cruz吗? 08/11 09:13
5F:推 xyz4594: 看棒球比较重要啦 补习少去一天没差 08/11 09:14
6F:推 speed1108: 本季对过水手一次唷..被Cruz尻一支2B..但也送1K 08/11 09:19
7F:推 cdpicker: @speed1108 谢谢你的回覆 08/11 09:20
8F:推 tnl0716: 跷课就是要看陈伟殷阿 不然要干嘛 08/11 09:21
9F:推 s66671122: 未打先猜,克鲁兹两分炮後殷仔回稳打线後半发威最後无 08/11 09:22
10F:→ s66671122: 关胜败 08/11 09:22
11F:推 imblic106: 殷仔加油! 08/11 09:22
12F:→ GoldenWasabi: 韩文台是被砍了吗?(偷渡中) 08/11 09:24
13F:推 liunwaiqoo: 陈生涯对美联西区的成绩是最好的,我殷利多 08/11 09:26
14F:→ liunwaiqoo: 明年如果FA以後加入天使他的成绩肯定会更杀 08/11 09:26
15F:推 jaychou42: 殷仔加油!千万别为了催球速而殷小失大! 08/11 09:28
16F:推 moneychen: 请问一下美国晚上10点打不会太晚吗? 08/11 09:28
17F:推 sin17: 天使需要签他吗... 08/11 09:29
18F:推 Dawei1165: 加油!!! 08/11 09:30
19F:推 frf2pujols17: 西雅图现在晚上六点半 08/11 09:31
20F:→ jehovahlove: 东西岸有时差? 08/11 09:31
21F:→ hicker: 东岸晚上10点是西岸晚上7点 08/11 09:31
22F:→ hicker: 有时差呀 08/11 09:31
23F:推 andy02: 我也觉得今天这比赛时间会不会太诡异? 08/11 09:32
24F:推 yushenlin: 米国是很大的 08/11 09:32
25F:→ andy02: 喔 谢谢h大解说 08/11 09:33
26F:→ yushenlin: 厄…地理都有教啊 08/11 09:33
27F:→ hicker: 纽约晚上10点=芝加哥晚上9点=丹佛晚上8点=洛杉矶晚上7点 08/11 09:33
28F:推 yankees733: 东西岸有时差这麽多人不知道喔 08/11 09:34
29F:→ andy02: 平常不会注意美国各地时差@@ 08/11 09:34
30F:推 GoldenWasabi: 蛤?原来有人不知道美东美西有时差+1 08/11 09:35
31F:推 edouard09: 地理老师常请假齁XD 08/11 09:35
32F:推 Kaberman569: 美西不是常常东八区时间十点开打吗0.0 08/11 09:35
33F:→ andy02: 几乎只看陈的比赛 就没注意这麽多了~ 08/11 09:35
34F:推 yankees733: 以前王建民看久了,现在都记得各区比赛的时间 08/11 09:36
35F:→ edouard09: 美西的比赛看到中午不是常常发生的事情吗XD 08/11 09:36
36F:推 lai162: 哈哈哈 uccu(回头马上开世界时间...) 08/11 09:36
37F:→ Kaberman569: 都几年了居然有这疑问,以前也播过不少LAD小小郭 08/11 09:36
38F:推 love171920: 加油 08/11 09:37
39F:→ Kaberman569: 常常国内中午过後还没上班呢XD 08/11 09:37
40F:推 shuo1010: 以前有追王建民才知道有时差XD 08/11 09:39
41F:推 Grady1979: 台湾日本这麽近都有时差了 怎麽可能美国东西岸没时差.. 08/11 09:39
42F:推 andy02: 以前也有看王比赛 只是过满久了 也没在注意时间了 08/11 09:40
43F:推 GuoJ: 刚好时间ok 08/11 09:44
44F:推 a601401: 先来等某动物来酸 08/11 09:48
45F:推 huangjyuan: 东岸7:00 中部8:00 西岸10:00 08/11 09:48
46F:推 kzzoz80: 嗯 你加油 08/11 09:49
47F:推 ahshao: 先发列表的DH名字拼错了 08/11 09:50
48F:推 ji394su31013: 暑修无法看……殷仔加油 08/11 09:53
※ 编辑: hicker (36.229.126.212), 08/11/2015 09:55:20
49F:→ youngsam: 西岸的时间阿 不过对东岸的人就有点晚了 08/11 09:59
50F:→ hicker: 开播!! 08/11 10:01
51F:→ dannykuo: 有些州会采日光节约时间 中部也有地方跟美东时间一样 08/11 10:03
52F:推 frf2pujols17: FOX主播又被切广告了XD 08/11 10:04
53F:嘘 tnl0716: 白目 乱切广告 08/11 10:04
54F:→ hicker: 要看美国的时区划分线 尤其是大西洋与中部时区 08/11 10:05
55F:→ dannykuo: 记得印第安那州和伊利诺两个在隔壁 夏天有差一小时 08/11 10:07
56F:→ hicker: 修正 是美东时区跟美中时区 08/11 10:07
57F:→ waiting0801: 准备开始了 08/11 10:07
58F:→ hicker: https://goo.gl/MmPFPJ 美国时区图 08/11 10:09
59F:→ youngsam: 中国这麽大,都用北京时间啊 08/11 10:10
60F:推 waiting0801: H大可以考虑编辑在最前面,让有需要的人可以看到 08/11 10:10
61F:→ hicker: 赛前闲聊就算了.... 08/11 10:12
62F:推 Linethan: 家里没电视啊啊啊啊 跪求....... 08/11 10:15
63F:推 steven211037: 常公刚说是谁?边上班边听没注意 08/11 10:15
64F:推 mepass: 狂拖台钱 08/11 10:15
65F:推 bengowa: 疯狂蚕豆 08/11 10:15
66F:推 a601401: 别出局如风就好 08/11 10:15
67F:推 tnl0716: ...差一点 08/11 10:15
68F:推 alex813: 超黏XDDD 08/11 10:16
69F:推 et10tw: 差一点点啊... 08/11 10:16
70F:推 longmok2500: 几球了啊= = 08/11 10:16
71F:推 MedicNylon: 跟球跟得真紧 08/11 10:16
72F:推 duepre: 我估狗打个MLB直播就有得看了 08/11 10:16
73F:推 frf2pujols17: google 民视或fox就有了 08/11 10:16
74F:→ youngsam: 一人耗13球 08/11 10:17
75F:推 bengowa: Hrrr 08/11 10:17
76F:→ alex813: AJ炸啦!!!!!!!!!! 08/11 10:17
77F:推 ChiroQQ: HR 08/11 10:17
78F:→ longmok2500: see ya 08/11 10:17
79F:推 mmmmmfff: 1-2维持到13球超强 08/11 10:17
80F:推 MetalChao: 炸! 08/11 10:17
81F:推 yankees733: AJ GONE!! 08/11 10:17
82F:推 buccos: Gone 08/11 10:17
83F:→ frf2pujols17: 爽 08/11 10:17
84F:推 yz31pln89: 水 08/11 10:17
85F:推 NowQmmmmmmmm: HR 08/11 10:17
86F:推 fred0755: HR!!!!!!!!!!!!!!!!! 08/11 10:17
87F:推 et10tw: Hrrrrrrr 08/11 10:17
88F:推 a23644910: 赞啦 08/11 10:17
89F:推 Isaac: HR 08/11 10:17
90F:→ LAKobeBryant: 水 08/11 10:17
91F:推 a601401: 炸裂 08/11 10:17
92F:推 cheeky2115: 爽 08/11 10:17
93F:推 goddamned: 有希望 08/11 10:17
94F:推 rayes: 杠!阴仔获得火力支援 08/11 10:17
95F:推 yuiweq1999: 居然有先得分?! 08/11 10:17
96F:→ NowQmmmmmmmm: 打到棒头还能出墙也太厉害了一点 08/11 10:17
97F:推 ssaw5166: 随便就一枝全垒打惹 08/11 10:18
98F:推 MrMuscle: jones! 08/11 10:18
99F:推 v612138: Aj炸!!! 08/11 10:18
100F:→ tnl0716: 杠~ 08/11 10:18
101F:→ longmok2500: CD跟上RRRR 08/11 10:18
102F:推 tawi: hrrrrrrrrr 08/11 10:18
103F:→ youngsam: 刚好出墙!炸裂! 08/11 10:18
104F:推 LAGOD: 话说,全垒打西班牙文到底要怎喊 08/11 10:18
105F:推 nawy798546: 爽哦 08/11 10:18
106F:推 duepre: 殷仔首先掉分(误 08/11 10:18
107F:→ mesoporous: 小胡子CD~K!! 08/11 10:19
108F:→ cheeky2115: 风扇哥留胡子好可爱 08/11 10:19
109F:→ tnl0716: 电风哥 08/11 10:19
110F:推 bengowa: CD越来越像电风扇 08/11 10:19
111F:→ LAGOD: 每次主播只喊,阿杀韦煞 美威,就没了,记得很长啊 08/11 10:19
112F:推 d90: 怎麽几天没见,CD胡须留成这样了 08/11 10:19
113F:推 Edison1174: jonrón 08/11 10:19
114F:推 NovaDjokovic: 跪求连结 08/11 10:19
115F:推 lmf770410: 他ㄧ挥我这里都好凉 08/11 10:19
116F:推 Kaberman569: 还是刮一刮比较好看... 08/11 10:20
117F:推 dfiyrixsa: 手套掉下去了XD 08/11 10:21
118F:推 Edison1174: 94MPH 08/11 10:21
119F:推 andy02: 真的 没胡子帅多了 但不知道这是不是跟迷信有关 08/11 10:21
120F:推 yz31pln89: 94连发 08/11 10:21
121F:推 loveazure: 第一球就94 08/11 10:21
122F:→ Edison1174: 94 94 93 08/11 10:21
123F:→ andy02: 有些球员会觉得目前情况不错就不刮胡子了 08/11 10:22
124F:→ duepre: 感觉状况调整得不错喔 加油 08/11 10:22
125F:推 d90: 94连发 08/11 10:22
126F:推 longmok2500: 球速有出来 08/11 10:22
127F:推 jehovahlove: 94连发 08/11 10:23
128F:推 waiting0801: 94 08/11 10:23
129F:推 loveazure: 今天球速超快 08/11 10:23
130F:推 yz31pln89: 都94。满猛的 08/11 10:23
131F:推 Rex3661: 来了来了~~~ 08/11 10:23
132F:推 alex813: 差点 抖了两下 08/11 10:24
133F:推 cdpicker: 差一点!!! 好险 08/11 10:24
134F:→ NowQmmmmmmmm: 好险 08/11 10:24
135F:推 a89182a89182: 甜了 08/11 10:24
136F:推 Edison1174: 差点铁嘴 08/11 10:24
137F:推 frf2pujols17: 还真的没全垒打 08/11 10:24
138F:→ duepre: 吓死了 还以为出去了 08/11 10:24
139F:→ d90: 好佳在 08/11 10:24
140F:→ yz31pln89: 打出去好吓人 08/11 10:24
141F:→ jehovahlove: 95被尻 08/11 10:24
142F:推 he02341997: 好险阿 08/11 10:24
143F:推 v612138: 刚讲完…吓死我 08/11 10:24
144F:推 et10tw: 好险... 08/11 10:24
145F:推 snth0705: 还以为要出去了= = 08/11 10:24
146F:推 longmok2500: 尿抖了一下=_= 08/11 10:24
147F:推 mannyharris: 球太高啦 08/11 10:24
148F:推 d06: 吓数伦 08/11 10:24
149F:推 yuan1205: 滴了两滴 08/11 10:24
150F:推 yuiweq1999: 没出去都好处理!!!加油! 08/11 10:24
151F:→ cdpicker: 老队友来了~感觉不妙 08/11 10:24
152F:推 eric02396: 主播一讲打不好 就被打长打了 08/11 10:24
153F:→ longmok2500: 恐怖的来了 08/11 10:24
154F:→ waiting0801: .....吓到= = 以为飞出去了 08/11 10:25
155F:→ d90: 又要洗得点圈数据了? 08/11 10:25
156F:→ cdpicker: 球偏高了! 08/11 10:25
157F:推 okplaymayday: 曾公神算 08/11 10:25
158F:→ waiting0801: 克鲁兹很硬,陈加油阿 08/11 10:25
159F:→ youngsam: 小心前队友 08/11 10:26
160F:→ d90: 好像机器,都94mph 08/11 10:26
161F:推 NowQmmmmmmmm: 传很准也 08/11 10:27
162F:推 yz31pln89: 有点准.... 08/11 10:27
163F:→ cdpicker: 差一点点 08/11 10:27
164F:→ d90: 好可怕的臂力 08/11 10:27
165F:推 a0988332469: 臂力真好 08/11 10:27
166F:推 et10tw: 差点np 08/11 10:27
167F:推 a89182a89182: 差点成台湾之友 08/11 10:27
168F:→ NowQmmmmmmmm: 触到老二XD 08/11 10:27
169F:推 v612138: 精彩啊!可惜了!!!!! 08/11 10:27
170F:→ cdpicker: 第一代台湾之友来了 08/11 10:27
171F:推 alex813: 下庄!!!!!!!!!! 08/11 10:27
172F:推 yankees733: 下庄 08/11 10:27
173F:推 yuan1205: 台湾之友 08/11 10:28
174F:推 Fiona102: 台湾之友 08/11 10:28
175F:推 mepass: Cano好人 08/11 10:28
176F:→ cdpicker: 得点圈 0-2 陈伟殷贞猛 08/11 10:28
177F:推 gn02143363: cpbl什麽时候会有这种臂力 08/11 10:28
178F:→ v612138: 谢Cano 08/11 10:28
179F:推 waiting0801: 今天陈第一局球速真的不错94蛮多的,甚至还有95 08/11 10:28
180F:推 DerekHolland: Cano一球死 08/11 10:28
181F:推 loveazure: 今天投球有比较用力吗 为什麽几乎都94 08/11 10:28
182F:→ youngsam: 传得很好! 08/11 10:28
183F:→ duepre: 帮伟殷省球数 谢谢CANO 08/11 10:28
184F:→ cdpicker: @gn02143363 统一郭岱琦 08/11 10:28
185F:推 abxtpml56: 不块是台湾之友 一球死 08/11 10:28
186F:推 scatology: 那臂力太扯了吧 不落地...... 08/11 10:28
187F:推 colorbest: 臂力真的好强 08/11 10:28
188F:推 yuiweq1999: 果然得点圈反而不会掉分XD 08/11 10:28
189F:推 vul3yk6m06: Cano不愧是台湾之友 08/11 10:28
190F:推 keano1402: Cano台湾之友 08/11 10:28
191F:推 q881599962oo: 今天速球好快 08/11 10:28
192F:推 s19987: 那个臂力……………扯 08/11 10:28
193F:→ youngsam: 洗得点圈数据 08/11 10:29
194F:推 ksxo: 赚了两个得点圈打数XD 08/11 10:29
195F:推 jamie3160003: 中职看习惯了 mlb根本一堆鬼神 08/11 10:29
196F:推 d90: 果然又下修得点圈数据了,第一局直球球速几乎都94 08/11 10:29
197F:推 chen06: Cano台湾之友好像当很久了 XD 08/11 10:29
198F:→ s19987: 最近没关注金鸟,请问右外野手是最近交易来的吗? 08/11 10:30
199F:推 cheeky2115: Chen到西岸球速好像都不错 之前对运动家也是 08/11 10:30
200F:→ cheeky2115: 酿酒人交易来的 08/11 10:30
201F:推 alex813: 右外野手 从酿酒人换来的 08/11 10:30
202F:推 a601401: 从王葛格到现在QAQ 08/11 10:30
203F:→ s19987: 欧欧感谢 08/11 10:30
204F:→ youngsam: Parra是交易来的没错 08/11 10:31
205F:→ d90: 下季去LA的球队好了 08/11 10:31
206F:推 molinawang: 从酒人来的 08/11 10:31
207F:推 g794136: 第一局球速好快阿 08/11 10:31
208F:推 longmok2500: 3-0到吃K 08/11 10:31
209F:→ NowQmmmmmmmm: 金鸟之前的右外野手实在都太鸟 终於有一个能看的 08/11 10:32
210F:推 RG0703: http://goo.gl/eI0sIY CH7 低调 08/11 10:32
211F:→ youngsam: Wieters打DH的时打的不算很好啊 08/11 10:33
212F:推 eric4309: 加油喔! 08/11 10:34
213F:推 cheeky2115: 常哥 讲笑话了 08/11 10:34
214F:推 randylee: 西岸一般都是台湾10点开打,有人第一天看MLB? 08/11 10:37
215F:推 ccccris: 外角海 08/11 10:38
216F:推 waiting0801: 都已经打到第二局了...还在讨论几点打囧 08/11 10:38
217F:推 frf2pujols17: 是在凶什麽 知道这个很厉害吗 08/11 10:39
218F:推 alex813: 冏 08/11 10:39
219F:推 Edison1174: HR 08/11 10:39
220F:推 yz31pln89: 唉 08/11 10:39
221F:推 yankees733: 炸 08/11 10:39
222F:推 ttb: sad.............. 08/11 10:39
223F:推 v612138: 留不住啦~~~ 08/11 10:39
224F:推 abxtpml56: = = 08/11 10:39
225F:推 banbantone: hr 08/11 10:39
226F:推 et10tw: ......该死 08/11 10:39
227F:推 samggyy: 场场被轰 08/11 10:39
228F:推 chihow: 又被尻...... 08/11 10:39
229F:推 ssaw5166: 炸裂喇 08/11 10:39
230F:推 NowQmmmmmmmm: 跳的有点逼机XD 08/11 10:39
231F:推 sxxs: 也太容易被轰.... 08/11 10:39
232F:→ banbantone: 太容易被尻 08/11 10:40
233F:嘘 scatology: 进垒点都蛮甜的@@ 坏球又很明显 08/11 10:40
234F:推 DM24Tim: Guti... 08/11 10:40
235F:→ rock0525: 才夸完就被轰连两颗红中.... 08/11 10:40
236F:推 peter458z: 啊阿啊啊......... 08/11 10:40
237F:推 waiting0801: .....= = 08/11 10:40
238F:推 HonusWagner: 超高全垒打 08/11 10:40
239F:推 YenChinBiao: 球速小降一点了 08/11 10:40
240F:嘘 LAGOD: 本季第23发,快追上高国辉了,强 08/11 10:40
241F:→ hergan: 93mile连发 08/11 10:40
242F:→ sxxs: 被轰了23发...... 08/11 10:40
243F:→ OldYellowDog: <囧> 08/11 10:40
244F:推 bman: ....... 08/11 10:40
245F:推 d90: 被轰之後球速又加上去了 08/11 10:41
246F:推 s19987: 进垒点太甜惹 08/11 10:41
247F:→ william7713: 刚好过墙... 08/11 10:41
248F:推 pdr666333: 最近一直被炸= = 08/11 10:41
249F:推 yuiweq1999: 要掉分都直接来的QQ 08/11 10:41
250F:→ thnlkj0665: 可惜啊... 08/11 10:41
251F:→ LAGOD: 陈也算是小发球机,太容易被炸了 08/11 10:41
252F:→ lmf770410: 1:1? 08/11 10:41
253F:推 r19881231: 小陈 你要不要学陈鸿文 先堆垒包比较会投 08/11 10:41
254F:推 jary200235: 墙有拉近吗 08/11 10:42
255F:→ s19987: 1 out,稳住 08/11 10:42
256F:→ sxxs: 陈伟殷全垒打竞赛美联第四名(疑 08/11 10:42
257F:→ sxxs: 都快比中田翔还多了 XD 08/11 10:42
258F:推 LAGOD: 陈鸿文>>>殷仔,要不是鸿文懒得在美国,现在不得了 08/11 10:43
259F:推 alex813: 某L在开玩笑吗?? 08/11 10:44
260F:推 s19987: 失一分下庄 08/11 10:45
261F:推 abxtpml56: LA看就知道在反串 08/11 10:45
262F:推 lai162: 不要跟那个帐号认真... 08/11 10:45
263F:→ Blader: 秀下限啊 陈鸿文连3A都丢得普普 08/11 10:45
264F:嘘 g794136: 连live文也在反串 真的无聊 08/11 10:45
265F:推 yushenlin: 不意外 08/11 10:46
266F:推 Linares: 他是想黑陈鸿文 08/11 10:46
267F:推 OLM: CHEN今年的FIP生涯最差 可能不利谈新约 08/11 10:46
268F:推 scatology: 陈鸿文XDDDDDDDD 那他为甚麽懒得在美国阿??? 08/11 10:46
269F:嘘 hbk20491: ==========对方投手又变赛扬了========== 08/11 10:46
270F:推 basketballj: 陈鸿文是态度问题 08/11 10:48
271F:→ lee81219: 请问广播要听哪一台呢? 08/11 10:49
272F:推 GoldenWasabi: 看起来好好吃 08/11 10:49
273F:推 andy02: 肉看起来好像很好吃 @@ 08/11 10:49
274F:推 ttb: 可惜 08/11 10:49
275F:→ basketballj: 不然其实以3A成绩来说很有机会上大联盟 08/11 10:49
276F:推 longmok2500: 兴奋了一下 啧 08/11 10:49
277F:推 MachoMan217: 还以为出去 08/11 10:50
278F:→ basketballj: 不过跟陈伟殷比………一个有实绩一个没实绩还退化 08/11 10:50
279F:推 fred0755: 这场感觉陈会输 08/11 10:51
280F:推 a23644910: 赛扬架势 08/11 10:51
281F:推 d90: 对方投手又开启赛扬模式了 08/11 10:51
282F:推 sxxs: 说好不谈王的.... 主播.... 08/11 10:54
283F:推 scatology: 曲球好惨 08/11 10:55
284F:推 yushenlin: 外野好多新同学 08/11 10:55
285F:推 NowQmmmmmmmm: 这一组外野手防守好多了 明星赛前根本就悲剧 08/11 10:55
286F:推 pzboy: 乾 韩文视又挂了吗 08/11 10:55
287F:推 dudeboy: 今天都94稳定输出 08/11 10:56
288F:推 longmok2500: BB 08/11 10:56
289F:推 mono0922: 查了一下,某L果然是吱吱,该说不意外吗? 08/11 10:57
290F:推 sxxs: 主审............. 08/11 10:57
291F:推 jary200235: 好窄 08/11 10:58
292F:推 fred0755: 好球带小的可怜 08/11 10:58
293F:→ sxxs: 修成红中.... 08/11 10:58
294F:推 agod10823: 94 08/11 10:58
295F:推 cancould: 今天好球带蛮小的… 08/11 10:58
296F:推 ttb: 居然坏球................. 08/11 10:58
297F:推 alex813: 再跑阿!! 08/11 10:59
298F:→ ttb: 抓到了!!! 08/11 10:59
299F:→ sxxs: 抓到! 08/11 10:59
300F:推 Edison1174: CS 08/11 10:59
301F:推 a8017700: 这好球带也太小了吧 08/11 10:59
302F:→ fred0755: 哩沟皂 08/11 10:59
303F:推 frf2pujols17: 哩沟皂 08/11 10:59
304F:推 longmok2500: 哩沟造 08/11 10:59
305F:→ instill8: A4 08/11 10:59
306F:推 yuiweq1999: 水! 08/11 10:59
307F:推 yankees733: CS 08/11 10:59
308F:推 melrosejin: 嘻嘻再跑呀 08/11 10:59
309F:推 yushenlin: 水 08/11 10:59
310F:推 nowucme: 牵制? 08/11 10:59
311F:→ mono0922: 你们家姐姐才该去大联盟,把全美打者膝盖都打爆才屌 08/11 10:59
312F:→ yushenlin: CD的胡子… 08/11 10:59
313F:→ sxxs: 一垒手实况野球般华丽的转身!! 08/11 10:59
314F:推 andy02: 抓的好! 08/11 11:00
315F:→ youngsam: 抓到了! 08/11 11:00
316F:推 tnl0716: 话说CD的胡子很丑欸 08/11 11:00
317F:推 abxtpml56: 呼… 08/11 11:00
318F:推 d90: 接的也太随性 08/11 11:00
319F:推 cpcpao: 舒服 08/11 11:00
320F:推 clywin123: 一垒手转身感觉耗了不少时间 08/11 11:00
321F:嘘 YenChinBiao: 膝之乱入? 08/11 11:00
322F:推 g794136: 不错! 08/11 11:00
323F:→ yushenlin: 真的超丑 08/11 11:00
324F:→ alex813: CD胡子超复古XD 08/11 11:00
325F:推 dudeboy: 胡子很像美国公园老人在留的... 08/11 11:00
326F:→ sky419012: CD的胡子 怎麽留成这样? 08/11 11:00
327F:推 newsbow: 今天好球带是B5吧 08/11 11:00
328F:→ youngsam: 自己塞的跑者自己抓? 08/11 11:01
329F:推 smatt612ro: 吱迷被抓包 真丢脸XDDDD 08/11 11:01
330F:→ dudeboy: 要不是他CD打击火烫,要不然真想把他胡子拔掉 08/11 11:01
331F:推 pepman: CD这胡子真像马莉兄弟 08/11 11:01
332F:推 waiting0801: XD玛莉兄弟  08/11 11:01
333F:推 g794136: 对手真的又变赛阳了 08/11 11:03
334F:推 longmok2500: 赛扬上身 08/11 11:03
335F:推 tobbaco: 帕拉转队前成绩如何? 08/11 11:03
336F:推 rayes: Nuno投的比殷仔还好? 08/11 11:03
337F:推 sxxs: 曾公 XDDDDDDDD 08/11 11:04
338F:推 a23644910: 又是AJ 08/11 11:04
339F:推 d90: 今天只剩AJ可打 08/11 11:04
340F:→ a23644910: 胡子... 08/11 11:05
341F:推 scatology: CD的胡子好性感 08/11 11:05
342F:推 s19987: 电风扇来惹 08/11 11:05
343F:→ d90: 比较像洋芋片品牌的那位先生 08/11 11:05
344F:→ LAGOD: 陈真的只有四五号的水准,抖阿 08/11 11:05
345F:推 abxtpml56: 品客+1 08/11 11:05
346F:→ a23644910: 胡子是不是歪歪的啊? 08/11 11:06
347F:推 longmok2500: 喔喔喔喔喔喔 08/11 11:06
348F:推 alex813: 超前拉!!!! 08/11 11:06
349F:推 Edison1174: 2:1 08/11 11:06
350F:→ s19987: 得分!! 08/11 11:06
351F:→ longmok2500: 2:1 08/11 11:06
352F:→ NowQmmmmmmmm: 跑好快! 08/11 11:06
353F:→ abxtpml56: goal!! 08/11 11:06
354F:推 fred0755: 羺 08/11 11:06
355F:推 cheeky2115: 爽 没特殊布阵 08/11 11:06
356F:推 et10tw: Ok 08/11 11:06
357F:推 genesys570: 胡子哥赞啦 08/11 11:06
358F:推 sxxs: 差点抓到.... 08/11 11:06
359F:→ longmok2500: 品客大叔XD 08/11 11:06
360F:推 yuiweq1999: 胡子哥XD 08/11 11:06
361F:→ et10tw: 哈哈哈哈品客胡 08/11 11:06
362F:→ sxxs: 忘了布阵??? XDDDD 08/11 11:06
363F:推 aneasygame: 速度真快 08/11 11:07
364F:推 andy02: AJ超快的.. 08/11 11:07
365F:→ NowQmmmmmmmm: 正常他打应该会很边边 怎麽没靠边 08/11 11:07
366F:→ cheeky2115: 忘记了吧 08/11 11:07
367F:→ s19987: 对耶怎麽没布阵 08/11 11:07
368F:推 ugly4: 没布阵处理胡子哥 08/11 11:07
369F:推 pinray: 布阵不就送跑者上三垒? 08/11 11:07
370F:推 ddreamer: h 08/11 11:08
371F:推 yz31pln89: 嘿嘿 08/11 11:08
372F:推 yuiweq1999: 打线又醒了! 08/11 11:08
373F:推 d90: 来个大局吧!! 08/11 11:08
374F:→ s19987: 一支安打一支一支打 08/11 11:08
375F:推 waiting0801: 连续H!!! 08/11 11:09
376F:推 g794136: 布阵的话是拉ss去吧 08/11 11:09
377F:推 abxtpml56: 89mph失投 可惜 08/11 11:09
378F:推 peanut7516: 连下去啊 08/11 11:10
379F:推 ttb: 好球带真的有小 08/11 11:10
380F:推 fred0755: 废棒一个 08/11 11:10
381F:推 pinray: 3b通常会移ss? 08/11 11:10
382F:嘘 helloit: k? 08/11 11:10
383F:推 ugly4: 有够窄 08/11 11:11
384F:推 nichaellin: K味农 08/11 11:11
385F:推 yz31pln89: 唉 08/11 11:12
386F:推 ddreamer: k 08/11 11:12
387F:推 a601401: QQ 08/11 11:12
388F:推 fred0755: 後段都废棒 挨 08/11 11:13
389F:推 chivalry1987: Lake 看起来就烂烂的 08/11 11:13
390F:推 bengowa: 死屍打线 08/11 11:13
391F:推 pk2003627: 跪求手机直播网址! 08/11 11:13
392F:推 abxtpml56: 打不到 08/11 11:13
393F:→ fred0755: 为啥把哈迪摆第八棒阿 无颜 08/11 11:13
394F:推 d90: 失投球都没掌握,叹 08/11 11:13
395F:推 ksxo: K功不错啊 以今天的好球带来说 08/11 11:13
396F:推 yushenlin: 恐怖裤子 08/11 11:15
397F:推 hitots: 请问Nuno是亚裔吗? 怎有一种亚裔的fu 08/11 11:16
398F:推 ddreamer: h 08/11 11:16
399F:推 banbantone: 安打 08/11 11:16
400F:推 andy02: 有亚裔的感觉 或是南美洲人? 08/11 11:16
401F:推 g794136: 很会推... 08/11 11:16
402F:推 et10tw: Nuno 是西班牙语吧? 08/11 11:16
403F:推 volcome0427: 我有没有看错,Cruz用推的? 08/11 11:17
404F:推 a601401: 来吧 台湾之友 08/11 11:17
405F:推 mepass: 台湾之友今天很给力 08/11 11:17
406F:推 agold: 怎麽出局的?这麽快 08/11 11:17
407F:推 DerekHolland: 台湾之友 again~ 08/11 11:17
408F:推 waiting0801: 跪求DP! 08/11 11:17
409F:推 abxtpml56: 超爱cano 08/11 11:18
410F:推 d90: 这支要小心 08/11 11:18
411F:推 scatology: 好球袋够小 08/11 11:18
412F:推 banbantone: 应该是南美洲那边的人吧 08/11 11:18
413F:推 a8017700: 超级A4好球带....... 08/11 11:18
414F:推 MetalChao: 好球带也超小... K zone 都显示在里面了 08/11 11:19
415F:推 snth0705: 跪求DP!! 08/11 11:19
416F:推 gn02143363: 好球带真的好小... 08/11 11:19
417F:→ waiting0801: 两边一致说真的就还好 08/11 11:19
418F:推 alex813: KKKK 08/11 11:19
419F:推 ddreamer: kkkkk 08/11 11:19
420F:→ MetalChao: KKKKKKKKKKKKKKKKK 08/11 11:19
421F:→ d90: 水阿 08/11 11:19
422F:推 Edison1174: 第1K 08/11 11:19
423F:推 et10tw: Kkkkkkkkkk 08/11 11:19
424F:推 g794136: 准!! 08/11 11:19
425F:推 yuiweq1999: KKKKK 08/11 11:19
426F:推 scatology: 吃k啦 08/11 11:19
427F:推 tnl0716: 终於k了 08/11 11:20
428F:→ d90: 别松懈阿 08/11 11:20
429F:→ d90: 今天直球均速应该有快93吧 08/11 11:21
430F:推 tom80114: 这坏球? 08/11 11:22
431F:推 MetalChao: 下庄 08/11 11:22
432F:推 WowProctor: 夸张好球带 08/11 11:22
433F:推 ddreamer: out下庄 08/11 11:22
434F:推 bengowa: 换边 08/11 11:22
435F:推 A1bertPujols: 安全下庄 08/11 11:22
436F:推 matchit: 好球带只有B4大小.... 08/11 11:22
437F:→ d90: 用球有点多,希望可以吃6局以上 08/11 11:22
438F:推 odsky: 主场优势腻... 08/11 11:22
439F:推 WildMind: 怎麽出局的? 08/11 11:22
440F:推 tnl0716: 是今天球速真的比较快 还是测速枪比较快乐? 08/11 11:22
441F:推 a27647535: 好球带好小啊 08/11 11:22
442F:推 mayflower020: 状况不错 但加油~~~ 08/11 11:23
443F:推 tj474474: 南美洲原住民本来看起来就很像亚裔了吧 08/11 11:23
444F:→ youngsam: 对手用球数更高啊 08/11 11:23
445F:推 waiting0801: 对手已经用了81球了 08/11 11:24
446F:推 a8017700: 这球给了?= = 08/11 11:24
447F:推 d90: 好球带不太一致吧? 08/11 11:25
448F:推 frankalex15: 好球带比屁眼还小 08/11 11:25
449F:推 mayflower020: 这摄影机 也太不专业。。 08/11 11:26
450F:→ mayflower020: 好几次 找不到球 08/11 11:27
451F:推 jehovahlove: 2B 08/11 11:27
452F:推 ddreamer: 2b 08/11 11:27
453F:推 yushenlin: 标准的马掐多2B 08/11 11:27
454F:→ yushenlin: 今天摄影师是民视的吧颗 08/11 11:27
455F:推 st941101: 莫非民视去实习? 08/11 11:27
456F:推 Edison1174: 爱接 08/11 11:28
457F:推 a23644910: 可惜 08/11 11:28
458F:推 a601401: 夸张 08/11 11:28
459F:推 MetalChao: 可惜 08/11 11:28
460F:推 d90: 有够负运 08/11 11:28
461F:推 ttb: 可惜 08/11 11:28
462F:推 eric02396: 被np 08/11 11:28
463F:→ ddreamer: 可惜 08/11 11:28
464F:→ yushenlin: 可惜啊 08/11 11:28
465F:→ mayflower020: 新同学 @@ 08/11 11:28
466F:推 rayes: 殷仔灵气守住了这球满分 08/11 11:29
467F:→ yushenlin: Cruz这球害我想到2011WS G6 9局下半 08/11 11:29
468F:推 andy02: 爱接鬼 08/11 11:29
469F:推 loveazure: 2011WS G6 9局下半发生什麽事 08/11 11:30
470F:推 ddreamer: 主审自己捡哈哈 08/11 11:31
471F:推 d90: 不死鸟红雀传奇 08/11 11:31
472F:推 botno1: 今天好球带比我的ipad air还小 08/11 11:31
473F:→ ddreamer: kkkkkkk 08/11 11:32
474F:推 MetalChao: 95mph 08/11 11:32
475F:推 g794136: 95!!! 08/11 11:32
476F:推 Edison1174: 95MPH K 08/11 11:32
477F:推 yz31pln89: 95。kkkkkkki 08/11 11:32
478F:推 frankalex15: 95! 08/11 11:32
479F:推 cheeky2115: 95!!!!!!! 08/11 11:32
480F:推 yushenlin: 95!!! 08/11 11:32
481F:推 ccccris: 95mile!!! 08/11 11:32
482F:推 coolpixs: 95!!!! 08/11 11:32
483F:→ d90: 95mph!!152km!! 08/11 11:32
484F:推 et10tw: Kkkkkkkk 08/11 11:32
485F:推 mayflower020: 水!!~~~ 08/11 11:32
486F:→ frankalex15: 从电视来看 好球带就是一块凤梨酥的大小 08/11 11:32
487F:→ botno1: 95! 08/11 11:33
488F:推 tnl0716: 只有我觉得水手的好球带比较大吗 08/11 11:33
489F:→ d90: Trumbo怎麽退化那麽快 08/11 11:33
490F:嘘 WildMind: 大小不是本垒板大小吗?这主审是.... 08/11 11:33
491F:推 alex813: KKKKKKKKK 08/11 11:34
492F:推 ddreamer: kkkkkk 08/11 11:34
493F:推 pomelo0608: 越投越利 08/11 11:34
494F:推 yankees733: KKKKK 08/11 11:34
495F:推 g794136: 准!! 08/11 11:34
496F:→ chan324: 又K 08/11 11:34
497F:推 yushenlin: KKKKKKKKKKK 08/11 11:34
498F:推 yz31pln89: 好准 08/11 11:34
499F:推 tnl0716: kkkkkkkk 08/11 11:34
500F:推 et10tw: Kkkkkkkkkkkkkkkk 08/11 11:34
501F:→ yushenlin: 挥空率越来越高 08/11 11:34
502F:推 yuiweq1999: 感觉越来越顺了!!!! 08/11 11:35
503F:→ ccccris: KKK!!! 08/11 11:35
504F:推 nichaellin: 找到凤梨书拉 08/11 11:35
505F:推 hergan: 殷神 08/11 11:35
506F:推 s0912734765: 越投越带劲 08/11 11:35
507F:推 d90: 今天直球均速接近150km吧 08/11 11:35
508F:推 twoquarters: 状况不错啊~~~ 08/11 11:35
509F:推 tonycowzz: 内角偏高不捡 这球偏低捡了 08/11 11:35
510F:推 coolpixs: 再来一颗 KKKKKKKKKKK 08/11 11:35
511F:推 nerv072: 93 连3颗!!! 08/11 11:35
512F:推 ryan8518: 直球超准!! 08/11 11:35
513F:推 saddog: 拉掉 哈哈 08/11 11:35
514F:推 botno1: 乾 这球帅 08/11 11:35
515F:→ Blader: 边角都能控这麽准就太好了 08/11 11:35
516F:推 apple8335: 找到凤梨酥XDDDDDD 08/11 11:35
517F:→ yushenlin: https://youtu.be/ORrvdyCgFmc?t=3m54s 2011 G6 9下 08/11 11:35
518F:→ yankees733: 5局79球 08/11 11:35
519F:推 andy02: 这球超犀利!! 08/11 11:35
520F:→ mats0816: 这几球控球!!! 08/11 11:35
521F:→ yushenlin: Cruz接到游骑兵就冠军了 结果从此一蹶不振 08/11 11:36
522F:推 ddreamer: 8.59 era 08/11 11:37
523F:推 MITPHYSICS: 陈猛的时候韩国345棒也是一样解决的 08/11 11:37
524F:推 d90: 2011WS真的很精典 08/11 11:37
525F:→ youngsam: 对面换投了 08/11 11:37
526F:→ yushenlin: 第一球超甜 没打 08/11 11:38
527F:推 pilgrimangus: 朵人要被便当炸翻了 08/11 11:38
528F:推 sky419012: 陈伟殷在水手主场球速好像都不错 08/11 11:38
529F:推 ddreamer: hr 08/11 11:39
530F:推 alex813: 小胡子炸啦!!!!!!!!!! 08/11 11:39
531F:推 yz31pln89: HR 08/11 11:39
532F:推 Edison1174: CD HR 08/11 11:39
533F:→ yushenlin: 丑胡子CD HRRRRRR 08/11 11:39
534F:推 yankees733: CD HRRRRR 08/11 11:39
535F:推 hergan: hr 08/11 11:39
536F:推 MetalChao: CD 状况也太好 08/11 11:39
537F:推 ttb: 水啦 08/11 11:39
538F:→ Blader: 爽!!!!!!! 08/11 11:39
539F:推 d90: 品客大叔!! 08/11 11:39
540F:推 a23644910: HRRRRRR 08/11 11:39
541F:推 ssaw5166: 炸 08/11 11:39
542F:推 d06: 水喔 08/11 11:39
543F:推 a601401: 帅啊 胡子哥 08/11 11:39
544F:推 yuiweq1999: 胡子是你!!!!?! 08/11 11:39
545F:推 et10tw: 好清脆 08/11 11:39
546F:推 tnl0716: 真的想刮你胡子 不过表现好就原谅你XD 08/11 11:39
547F:→ youngsam: 炸裂! 08/11 11:40
548F:推 scatology: 爽! 08/11 11:40
549F:推 chivalry1987: 球迷 帽子掉了XD 08/11 11:40
550F:推 abxtpml56: YA 08/11 11:40
551F:→ sky419012: CD灬炸裂 08/11 11:40
552F:→ andy02: 有刘胡子有差XD 08/11 11:40
553F:推 OldYellowDog: HRRRRRRRRRRRRRRRRRRRRRRRRRRRRRRRRRRRRRRRRRRRRRRR 08/11 11:40
554F:嘘 NovaDjokovic: 被雷到 08/11 11:40
555F:→ scatology: 帽子xdddd 要买新的了 08/11 11:40
556F:→ a23644910: 想接球结果帽子掉了 08/11 11:40
557F:推 ddreamer: hit speed 103mph 08/11 11:41
558F:推 d90: 看CD挥棒感觉真的没啥出力顺顺的挥就出去了 08/11 11:41
559F:推 asd22961166: 帽子掉第二次了XD 08/11 11:41
560F:推 o0991758566: 很厉害接到了 可是球连帽子一起飞走XD 08/11 11:41
561F:→ dannykuo: 应该会有工作人员帮他捡 08/11 11:41
562F:推 yushenlin: 抢到炸裂文啦 爽(虽然没人抢QQ 08/11 11:41
563F:推 tnl0716: 捕手手套尾劲很强哦 08/11 11:42
564F:推 youngsam: 稳稳投啊,昨天牛棚烧很大。 08/11 11:43
565F:推 Edison1174: DP 08/11 11:43
566F:嘘 yushenlin: = = 08/11 11:43
567F:推 fred0755: 码的後段真的有够废 08/11 11:43
568F:→ dannykuo: 工作人员好像还给他帽子了 阿球勒 08/11 11:43
569F:→ hergan: CD挥棒超漂亮 08/11 11:44
570F:推 benlinskyin: 球这麽慢还DP www 08/11 11:44
571F:→ hergan: 标准炮手 08/11 11:44
572F:推 d90: Cano传球真的扯,轻松甩还是很快 08/11 11:44
573F:推 Edison1174: 5-Hour Energy 08/11 11:45
574F:推 kauw: LAKER好弱 换来换去都是些肉脚 SNIDER PARMELEE LOUGH 08/11 11:46
575F:推 a7811292002: 请问几局了? 08/11 11:48
576F:推 helloit: 6下 08/11 11:48
577F:→ yushenlin: 湖人不意外 08/11 11:48
578F:推 Edison1174: 六下 08/11 11:48
579F:推 alex813: 6局2出局 08/11 11:48
580F:→ NowQmmmmmmmm: 出局如风 08/11 11:48
581F:推 blue8d83n: 6下 08/11 11:48
582F:推 lyf8068: 轻松惬意 08/11 11:48
583F:→ alex813: 下 08/11 11:48
584F:→ yushenlin: 恐怖裤子又来了 08/11 11:49
585F:→ yushenlin: 漂亮变速球 08/11 11:49
586F:→ lyf8068: 恐怖电风扇? 08/11 11:49
587F:→ lyf8068: 9444444444 08/11 11:49
588F:推 d90: 这几局控球比前三局好多了,变化球明显变威 08/11 11:49
589F:→ yushenlin: 83→94 威 08/11 11:49
590F:→ lyf8068: KKKK 08/11 11:49
591F:推 yankees733: 陈今天QS get 08/11 11:49
592F:推 MetalChao: 水啦 08/11 11:50
593F:推 ddreamer: QS 08/11 11:50
594F:推 pomelo0608: 结束六局^^ 08/11 11:50
595F:推 Blader: 爽!!!!!!! 08/11 11:50
596F:→ alex813: 水啦!!!!!稳一场 08/11 11:50
597F:→ yushenlin: 89球 6局 下一局还会上吗~ 08/11 11:50
598F:推 bengowa: 6局89球 会不会偷呢 08/11 11:50
599F:→ helloit: QS是甚麽缩写? 08/11 11:50
600F:→ lyf8068: 今年失超过3分 只有1场???????? 08/11 11:50
601F:推 d06: 优质先发 08/11 11:50
602F:推 noidc: quality start 08/11 11:50
603F:→ charles20267: 微舒服 08/11 11:50
604F:推 mayflower020: 好帅~~~~~ 08/11 11:50
605F:推 ChiaJie: Quality start? 08/11 11:50
606F:→ d90: 优质先发 08/11 11:50
607F:推 fred0755: QUALITY START 08/11 11:50
608F:推 tnl0716: 稳定的陈回来了 希望稳到季末阿 08/11 11:50
609F:推 a619103: 今天好稳 08/11 11:50
610F:推 Rex3661: 我殷威武 08/11 11:50
611F:→ lyf8068: Q屋 阿 了梯 START 08/11 11:50
612F:推 youngsam: 应该会继续上吧 08/11 11:50
613F:嘘 LAGOD: 真难得,有机会投第七局了,一个5566局限定的投手,这样超 08/11 11:51
614F:推 andy02: 这局好省 应该有第7局 08/11 11:51
615F:→ yushenlin: Quality Start 08/11 11:51
616F:推 XDDDD5566: 等等不给他投 又摔手套怎麽办QAQ 08/11 11:51
617F:→ fred0755: ERA降到多少? 08/11 11:51
618F:→ LAGOD: 棒 08/11 11:51
619F:推 nisi0773: 好难抉择 该去吃饭还是继续看呢 肚子好饿~ 08/11 11:51
620F:推 saddog: 今天真舒服 08/11 11:51
621F:推 OldYellowDog: 推 08/11 11:51
622F:推 cheeky2115: 跨勒踢死大 08/11 11:51
623F:→ a0988332469: 下一棒CANO 左打 对陈又打不好 会不会偷呢 08/11 11:51
624F:→ woulin: 89球 还可以偷一局 08/11 11:51
625F:推 Finn5566: 一定会上的吧 08/11 11:51
626F:推 twoquarters: QS Get!!!!!!!!!!!!!! 08/11 11:51
627F:推 yuiweq1999: 好猛阿~~ 08/11 11:51
628F:推 pilgrimangus: 酸民又来了 大家坐稳 08/11 11:51
629F:推 yankees733: 下局对Cano应该还会投吧 08/11 11:51
630F:→ yushenlin: 某动物还没出现 某人敢自称酸民吗 08/11 11:51
631F:推 Ferrero0212: 某些人真的很爱刷存在感XDDDDDDDDDDDD 08/11 11:51
632F:推 GoldenWasabi: 继续上+1 有状况再换 08/11 11:51
633F:推 botno1: 今天控球有点神啊,面对这种极小好球带还能控成这样 08/11 11:51
634F:推 HonusWagner: 89球竟然要用偷这个字 08/11 11:51
635F:→ d90: 变化球投得好直球效果更佳 08/11 11:52
636F:→ woulin: 不过见好就收吧 偷局数都会吃鳖 08/11 11:52
637F:嘘 sky419012: 小心引战的来了 别上钩啊 08/11 11:52
638F:→ yushenlin: 100球以内应该都还好 08/11 11:52
639F:→ andy02: 真的刚有一球 就在最边边角落 看了真爽 08/11 11:52
640F:推 g794136: 89球本来就会续投了吧 08/11 11:53
641F:推 ugly4: 还是要测续航力吧 08/11 11:53
642F:推 youngsam: 昨天牛棚烧了有点多,应该还是会让他多投 08/11 11:53
643F:推 v612138: 今日陈伟殷的投球真舒服! 08/11 11:53
644F:→ woulin: 早就测过很多次了 到百球就很容易爆 08/11 11:53
645F:推 d90: 等下Cano左打应该会续投,不过接下来今天打过HR的五棒,可能 08/11 11:54
646F:推 waiting0801: 今天陈的速球其实看得蛮爽的 08/11 11:55
647F:推 ken36995: 请问一下现在比数多少? 08/11 11:55
648F:推 GoldenWasabi: 今天好球带真的蛮鸟的 水手投手有点衰 XD 08/11 11:56
649F:→ hicker: BAL 3:1 SEA 08/11 11:56
650F:推 kauw: 换这只LAKE更弱.. 08/11 11:56
651F:→ GoldenWasabi: BAL 3: 1 SEA 7上 08/11 11:56
652F:推 MITPHYSICS: 投百球容易爆是上半季没看球吧 08/11 11:56
653F:→ ken36995: 谢谢 08/11 11:56
654F:→ kauw: 对很多投手来说上半季下半季本来就两件事 体力会开始下滑 08/11 11:57
655F:嘘 scatology: 100球会爆??? 08/11 11:57
656F:推 yushenlin: 後段好烂 08/11 11:58
657F:推 cheeky2115: 做操了喔 08/11 11:58
658F:推 cancould: 今年陈的era不是逐局递减吗 08/11 11:58
659F:推 d90: 酸民伺机而动 08/11 11:58
660F:→ kauw: 不过金鸟昨天牛烧光了 陈应该会吃到七局 08/11 11:59
661F:推 pinray: 加油 4.5.6棒! 08/11 11:59
662F:推 g794136: 到100球会爆不是今年吧 08/11 11:59
663F:推 yangch: 酸民热身完毕,等候上场 08/11 12:00
664F:推 OceanAdin: 还能被打一支阳春炮的空间... 08/11 12:00
665F:推 MetalChao: 台湾之友 1球 08/11 12:00
666F:→ g794136: 真的是台湾之友 08/11 12:00
667F:推 alex813: CANO好人 08/11 12:00
668F:→ yushenlin: 又一球死XDDDDDDDDDD 08/11 12:00
669F:推 helloit: 怎麽死的?这麽爱陈 08/11 12:00
670F:推 mepass: 今天cano人超好 08/11 12:00
671F:→ yushenlin: 真 台湾之友 08/11 12:00
672F:→ Blader: 水喔 1球解决 08/11 12:00
673F:推 scatology: Cano XDDDDDDDDDD 08/11 12:00
674F:推 MachoMan217: 还在 08/11 12:01
675F:推 Rex3661: 酸民带着婴仔到牛棚热身 08/11 12:01
676F:推 lyf8068: 修瓦特怕因仔生气XDDDDD 08/11 12:01
677F:推 waiting0801: XDDD 08/11 12:01
678F:推 jamie3160003: cano出局如风 08/11 12:01
679F:推 d90: Cano今天3次只花了4球,超级好人阿,Hi~Cano(戳戳) 08/11 12:01
680F:推 leo79415: 不愧是初代台湾之友 08/11 12:01
681F:→ mepass: 下次看要不要挑战0球出局 08/11 12:01
682F:推 lmf770410: 卡诺真好人 08/11 12:01
683F:→ nisi0773: 主播: Cano很合作!! 08/11 12:02
684F:→ scatology: 小心点阿 08/11 12:02
685F:→ leo79415: 不要俩好又被尻 08/11 12:02
686F:→ lmf770410: 吊个滑球看看 08/11 12:02
687F:推 tw88: 台湾好朋友 cano 08/11 12:02
688F:推 ugly4: 尿了 08/11 12:02
689F:推 alex813: KKKKKKKKKK 08/11 12:02
690F:推 yankees733: KKKKKKK 08/11 12:02
691F:推 pirson: 差点闪尿 08/11 12:03
692F:→ d90: 今天曲球全部坏球 08/11 12:03
693F:推 frankalex15: KKKKKKKKKKKKKKKKKKKKKKKKKKKKKKKKKKKKKKKKKKKKK 08/11 12:03
694F:推 MetalChao: KKKKKKKKKKKKKKKKKK 08/11 12:03
695F:推 et10tw: Kkk啦 08/11 12:03
696F:→ lmf770410: Kkkkkkkkkkk 08/11 12:03
697F:→ scatology: 吃K啦 08/11 12:03
698F:→ tw88: KKKKK 08/11 12:03
699F:→ Blader: KKKKKKKKKKKKKKK 帅啊!! 08/11 12:03
700F:→ lmf770410: Song!!!!!!!!!! 08/11 12:03
701F:推 twoquarters: KKKKKKKKKKKKKKKKK 08/11 12:03
702F:推 lyf8068: 因仔只会被全垒打丢分............. 08/11 12:03
703F:→ lmf770410: 抢好球数真棒 08/11 12:03
704F:推 benlinskyin: 好准 08/11 12:03
705F:→ d90: 这几局变化球完全进阶了 08/11 12:03
706F:→ alex813: NPPPPPPPPPPPP 08/11 12:03
707F:→ MetalChao: NP! 08/11 12:03
708F:→ yankees733: Machado NPPPPPPPPPP 08/11 12:03
709F:→ lmf770410: 马恰多!!!! 08/11 12:03
710F:→ frankalex15: 太美 08/11 12:03
711F:→ fred0755: 水啦超级NP 08/11 12:03
712F:推 de606430: NPPPPPPPPPPPPPP 08/11 12:03
713F:→ lyf8068: 如果是杨冠威.................... 08/11 12:03
714F:推 Roystu: 舒服 ~~~~~~~~ 08/11 12:03
715F:推 HonusWagner: 水 08/11 12:03
716F:推 yushenlin: NPPPPPP 08/11 12:03
717F:推 tryit0902: KKKKKKKKKKKKKKKKKKK 08/11 12:03
718F:推 bengowa: Nppppppppppp 08/11 12:03
719F:嘘 LAGOD: 控制得宜是12号,所以正常是345号,球评也这麽说了 08/11 12:04
720F:推 Axy8: 赞啦! 08/11 12:04
721F:推 a23644910: 水啦!会续投吗? 08/11 12:04
722F:推 peanut7516: 马掐多超帅 08/11 12:04
723F:→ yankees733: Machado不愧是金手套 08/11 12:04
724F:推 lee71xc07: 再偷一局! 08/11 12:04
725F:推 tnl0716: 哪有k拉哈哈 08/11 12:04
726F:→ lmf770410: 怎麽可以这麽舒服 08/11 12:04
727F:推 a619103: 帅阿 08/11 12:04
728F:→ fred0755: 中职一定检不起来外加暴传 08/11 12:04
729F:嘘 cheeky2115: 酸民勒? 08/11 12:04
730F:推 Tamama05: 有机会八局 08/11 12:04
731F:推 g794136: 舒服 08/11 12:04
732F:→ alex813: 马掐都守备就是舒服 08/11 12:04
733F:→ royli: 97球了 08/11 12:04
734F:推 d06: 超强 08/11 12:04
735F:推 abxtpml56: cool 08/11 12:04
736F:→ tnl0716: 某LA可以不要刷存在感吗 08/11 12:04
737F:推 andy02: NP爽 08/11 12:04
738F:推 shallow1112: 今天後面几局投的很棒 08/11 12:04
739F:推 a601401: 在上面没多远 08/11 12:04
740F:推 epw: 赞! 08/11 12:05
741F:→ andy02: 这场看的真爽快~ 08/11 12:05
742F:推 zaknafein: 投满七局 已哭 08/11 12:05
743F:推 Finn5566: 下一局纠竟会不会上呢wwww 08/11 12:05
744F:→ d90: 某L没人理 08/11 12:05
745F:→ a601401: 好可怜哦 08/11 12:05
746F:推 ugly4: 前几天U-Ball都燃烧到8局了... 08/11 12:05
747F:→ lmf770410: 不行的话蚵嗲 也可以 08/11 12:05
748F:推 HonusWagner: 应该会让他投看看,昨天牛棚烧不少 08/11 12:05
749F:→ Blader: 别理他 把他当空气就好了 08/11 12:05
750F:→ yankees733: 97球,应该能交给O'Day了 08/11 12:05
751F:推 tsailaw: 控制得好是12号 那就是12号啊= = 08/11 12:05
752F:→ bostonred: 我猜八局续投 一有人上垒就换投 08/11 12:05
753F:→ peanut7516: 管他几号,有好投就是爽 08/11 12:05
754F:→ epw: 如果是阳炮大概不敢传,如果是n4应该会丢到别人观众席上2垒 08/11 12:06
755F:→ peanut7516: 应该直接欧爹了 08/11 12:06
756F:推 qwqw0424: 某L夏天容易身体发冷 08/11 12:06
757F:推 eric4309: 3:1 08/11 12:06
758F:推 youngsam: 应该会继续 08/11 12:06
759F:推 pinray: 97球继续上抓後面三棒其实不是没可能 08/11 12:06
760F:推 cheeky2115: 水 金鹰赶快打 牛棚没时间练 让陈续投 08/11 12:06
761F:推 yuiweq1999: 买个午餐回来七局就投完了好快阿QQ 08/11 12:07
762F:推 twoquarters: 7局掉一分~~~ 明星赛後代表作!!! 08/11 12:07
763F:→ pinray: 出局如风XD 08/11 12:07
764F:→ fred0755: 金鸟玩全不想打保险分 码的 08/11 12:07
765F:推 ddt73930: 不会上吧 才领先两分 休休不会冒这种险 08/11 12:07
766F:→ fred0755: 後援就别掉分 操 08/11 12:07
767F:推 lmf770410: 想挥大棒 08/11 12:08
768F:→ fred0755: ODAY BRITTON上来关门 08/11 12:08
769F:推 GentleJena: 现场音怎麽不见了 08/11 12:08
770F:推 a23644910: 现场声音变好小 08/11 12:08
771F:→ lmf770410: Go 08/11 12:08
772F:→ a23644910: 还以为我耳鸣 08/11 12:09
773F:→ epw: 难讲了 一半一半 O'day打卡两天了 08/11 12:09
774F:推 sharkhead: 开副声道吧 08/11 12:09
775F:推 mepass: 还是别偷了 08/11 12:09
776F:推 cheeky2115: 转播没拍牛棚啊 续投吧 08/11 12:09
777F:推 chou001002: 球场观众席有电视喔?! 08/11 12:10
778F:推 HonusWagner: 牛棚昨天烧到歪掉,应该会续投 08/11 12:10
779F:推 GoldenWasabi: 这真的不好决定....XD 08/11 12:10
780F:→ epw: 不过剩下三棒全右打 可能会换.... 08/11 12:10
781F:推 yankees733: 续投 08/11 12:11
782F:推 alex813: Chen续投!!!!!!!!! 08/11 12:11
783F:推 lmf770410: 应该会偷到7.1~7.2 08/11 12:11
784F:推 Tamama05: 续投 08/11 12:11
785F:推 MetalChao: 续投! 08/11 12:11
786F:推 yushenlin: 继续投唷 08/11 12:11
787F:推 g794136: 续投! 08/11 12:11
788F:推 a23644910: 续投 08/11 12:11
789F:推 cheeky2115: 续*!!!!!! 08/11 12:11
790F:推 Roystu: 这麽拼 08/11 12:11
791F:推 d90: 曲球投进去了!! 08/11 12:11
792F:→ yankees733: 这局关键 08/11 12:11
793F:→ epw: 续投! 08/11 12:11
794F:推 nisi0773: 很难猜吗 就是续投 一有状况就换下来 08/11 12:11
795F:推 scatology: 破百 08/11 12:11
796F:推 cdpicker: 有人上垒就会被换下来 08/11 12:11
797F:→ lmf770410: 100球 08/11 12:11
798F:推 denispeter: 殷仔为台湾灾民投出一场好球,95英哩攻击 08/11 12:11
799F:推 benlinskyin: 准 08/11 12:12
800F:→ hergan: 状况真的超好 08/11 12:12
801F:→ lmf770410: 不举 08/11 12:12
802F:→ hergan: 94 mile 08/11 12:12
803F:推 sharkhead: 今天球速满猛的 08/11 12:12
804F:推 lee71xc07: 还有94 08/11 12:12
805F:推 wh0386: 感觉要被换了 08/11 12:12
806F:推 kauw: 是因为昨天RP烧光光 不过修华特就是状况好就一直投的人 08/11 12:12
807F:推 de606430: 修瓦特紧张吼 08/11 12:12
808F:→ yankees733: KKKKK 08/11 12:12
809F:→ Roystu: KKKKKKKKKKKKKKKKK 08/11 12:12
810F:→ scatology: KKKKKKKK 08/11 12:12
811F:→ alex813: KKKKKKKKK 08/11 12:12
812F:→ lmf770410: Kkkkkkkkkkkkkkk 08/11 12:12
813F:→ MetalChao: KKKKKKKKKKKKKKKK 08/11 12:12
814F:推 sean12345678: KKKKKKKKKK! 08/11 12:12
815F:推 hank61910: 两好三坏 08/11 12:12
816F:→ g794136: 还有94! 08/11 12:12
817F:推 tnl0716: kkkkkkkkkkk 08/11 12:12
818F:→ a23644910: kkkkkkkk 08/11 12:12
819F:→ yushenlin: 94 KKKKKKKKKKKk 08/11 12:12
820F:推 HonusWagner: 爽 08/11 12:12
821F:推 fred0755: KKKKKKKKKKKKKKKKKKK 08/11 12:12
822F:→ lmf770410: Song!!!!!!!!!!!!!!!!!!! 08/11 12:12
823F:→ lee71xc07: 脸发! 08/11 12:12
824F:→ yankees733: 完美速球 08/11 12:12
825F:→ de606430: 94KKKKKKKKKKKKKKKKKKKKKKKKKKKKKKKK 08/11 12:12
826F:推 cheeky2115: 太猛啦!!!!!!!!!!!! 08/11 12:12
827F:→ sharkhead: 这球超舒服 08/11 12:12
828F:→ hergan: 霸气 08/11 12:12
829F:→ epw: KKKKKKKKKKKKKKKKKKKKKKKKKK 08/11 12:12
830F:→ d90: 越投越带劲!! 08/11 12:12
831F:推 pomelo0608: 帅! 08/11 12:12
832F:→ lmf770410: 爽到爆 08/11 12:12
833F:推 FK84288: 94!!! 08/11 12:12
834F:推 mochiQ: 殷!!!!!!!!!!!!!!!!!!! 08/11 12:12
835F:推 loveazure: 陈怒K 08/11 12:13
836F:推 yuiweq1999: 会不会完投阿~~~~~ 08/11 12:13
837F:推 abxtpml56: 帅阿 08/11 12:13
838F:→ cdpicker: 超强! 08/11 12:13
839F:→ Blader: 完全正中直球硬拼 08/11 12:13
840F:→ youngsam: 牛棚需要休息啊 08/11 12:13
841F:→ yushenlin: 川宝啥时来水桶惹@@ 08/11 12:13
842F:推 tw88: 跟CANO看齐xddddd 08/11 12:13
843F:推 andy02: KKKKKKKKKK 08/11 12:13
844F:推 bostonred: 爽 08/11 12:13
845F:→ yushenlin: 打错是水手 08/11 12:13
846F:→ campdkny: @@ 陈今天好威喔 08/11 12:13
847F:推 w515013: 会拼完投吗? 08/11 12:13
848F:推 Finn5566: 好凶的直球阿!!!! 08/11 12:13
849F:→ yankees733: 球速不用太快还是能让人挥空 08/11 12:13
850F:→ tnl0716: 不会完投 认真觉得最多八局 08/11 12:13
851F:推 Luao47: 不可能吧 08/11 12:14
852F:推 wh0386: 曲球完全不行... 08/11 12:14
853F:推 botno1: 今天陈有霸气 08/11 12:14
854F:→ fred0755: 不会啦 一定给CP上 08/11 12:14
855F:推 d90: 这打者投完应该会换 08/11 12:14
856F:推 scatology: 今天状况不错 94 08/11 12:14
857F:推 waiting0801: 今天速球金送 08/11 12:14
858F:推 pirson: 唉唷~牛棚只有Britton 08/11 12:14
859F:推 a27647535: 要燃烧了 08/11 12:14
860F:→ scatology: 曲球不行 08/11 12:14
861F:→ yankees733: Britton会上来关门 08/11 12:14
862F:→ wh0386: 还投曲球... 08/11 12:14
863F:推 cdpicker: 拚直球吧 08/11 12:14
864F:推 OceanAdin: 该换了 08/11 12:14
865F:→ benlinskyin: 燃烧小宇宙 08/11 12:14
866F:推 lmf770410: 川伯蚕豆 08/11 12:14
867F:→ d90: 来颗变速 08/11 12:15
868F:推 yuiweq1999: 真的投很好啊~~ 08/11 12:15
869F:→ hergan: 偏高球都买有引诱力 打者都出棒打 08/11 12:15
870F:推 frankalex15: 修总坐立不安 08/11 12:15
871F:→ hergan: BB 08/11 12:15
872F:→ lmf770410: B.... 08/11 12:15
873F:推 alex813: 换了 08/11 12:15
874F:→ wh0386: 换 08/11 12:15
875F:推 kauw: 要110球了 08/11 12:15
876F:→ yankees733: 换了 08/11 12:15
877F:→ d90: 111 08/11 12:15
878F:→ benlinskyin: 换了 08/11 12:15
879F:推 Roystu: 可惜 08/11 12:15
880F:→ cdpicker: 可以换了 08/11 12:15
881F:→ lmf770410: 换 08/11 12:15
882F:推 tw88: 抠斯当没有极限 08/11 12:15
883F:推 yushenlin: 换了 08/11 12:15
884F:推 mannyharris: 换了 08/11 12:15
885F:推 a601401: 下班 08/11 12:15
886F:推 mepass: 偷不下去了 08/11 12:15
887F:→ yuiweq1999: 保送力马换 08/11 12:15
888F:推 sharkhead: 会摔手套吗 08/11 12:15
889F:→ lmf770410: 可以接受 08/11 12:15
890F:→ scatology: 不错了 08/11 12:15
891F:推 ddreamer: 投几局 08/11 12:15
892F:→ cdpicker: PTT球迷都知道怎调度了XDDD 08/11 12:15
893F:推 de606430: 收工~辛苦了 08/11 12:15
894F:推 sonesnsdsosi: 今天超赞 08/11 12:15
895F:→ hergan: 曲球没进去可惜了 08/11 12:15
896F:→ yushenlin: 又切广告 08/11 12:15
897F:推 LAGOD: 准备摔手套吗? 08/11 12:15
898F:推 GoldenWasabi: 算是ok的调度啦 08/11 12:16
899F:推 Tamama05: 好多乡亲 08/11 12:16
900F:→ kauw: 花了一堆球解决不了 可惜 08/11 12:16
901F:→ d90: 今天後面真的投很好 08/11 12:16
902F:推 ken8353: 美中不足 可惜 08/11 12:16
903F:→ sonesnsdsosi: 调度很ok 08/11 12:16
904F:推 sony1256: 下班了 今天猛 08/11 12:16
905F:推 NowQmmmmmmmm: 教练今天也赚死了 牛棚可以休息 08/11 12:16
906F:→ lmf770410: LAGOD只能摔键盘 08/11 12:16
907F:推 MeloKing: 刚刚咬手套 08/11 12:16
908F:→ woulin: 不只偷局数 连投球数都偷 08/11 12:16
909F:→ OceanAdin: 下一棒炸裂才会摔 08/11 12:16
910F:推 HonusWagner: Britton要投两局 08/11 12:16
911F:推 hu610346: 这打者好强 蚕豆魂 08/11 12:16
912F:→ alex813: 某L继续刷存在感 08/11 12:16
913F:推 tnl0716: 最後一颗变速其实也不差 只是打着明显等速球 08/11 12:16
914F:推 sg8888sgsg: 酸他的可以自己去打喔 08/11 12:16
915F:推 kerkerkerbe: 水喔 08/11 12:16
916F:→ woulin: 被打一轰就扯平了 08/11 12:17
917F:推 epw: 下场了 清洁快来扫玻璃呀~ 只剩下摔手套能酸了 08/11 12:17
918F:推 bostonred: 曲球如果能抢好球数的话 就更省力了 08/11 12:17
919F:推 youngsam: 该换了 08/11 12:17
920F:→ hu610346: 刚刚好像有看到中文应援海报 08/11 12:17
921F:推 snth0705: 求DP!!! 08/11 12:17
922F:推 andy02: 最後依颗头的不错 可惜打者没上钩 08/11 12:17
923F:→ mats0816: 最後一颗应该是内角滑球,打者选得好 08/11 12:17
924F:推 botno1: 左投卡特神要登场了 08/11 12:17
925F:推 frankalex15: 有国旗 08/11 12:17
926F:→ lmf770410: 今天真的太舒服了 08/11 12:17
927F:推 pirson: 修总用兵确实相对保守 让CP上来处理5个出局数 08/11 12:17
928F:推 helloit: 第一球要小心~ 08/11 12:17
929F:推 XDDDD5566: era降到3.21了 08/11 12:17
930F:→ andy02: 现在外卡之争很激烈阿 08/11 12:18
931F:→ pirson: 所以先前几次早早把殷仔换下来 也能理解 08/11 12:18
932F:推 hyk32166: 最近几场都投不多 一场还好 08/11 12:18
933F:推 sxxs: 直接压终结者 08/11 12:18
934F:→ cdpicker: 91%的速球 08/11 12:18
935F:→ lmf770410: http://i.imgur.com/AyvtCXw.jpg 08/11 12:18
936F:推 sharkhead: 这投手的直球怎感觉很会跑 08/11 12:18
937F:推 botno1: 97!!!!!!!!! 08/11 12:19
938F:推 tnl0716: 投一休四的closer (? 08/11 12:19
939F:→ hyk32166: Britton那颗是伸卡 08/11 12:19
940F:→ epw: CP V.S 盲炮 08/11 12:19
941F:→ hu610346: 陈伟殷的速球比希克威猛 08/11 12:19
942F:→ yankees733: 98mph二缝 08/11 12:19
943F:推 a601401: 98 08/11 12:19
944F:推 yushenlin: 98mph sinker!! 08/11 12:19
945F:推 a27647535: 98? 08/11 12:19
946F:推 kings1988: 希望季末能降到3以下 08/11 12:19
947F:→ botno1: 这投手就左投李维拉阿,只投卡特 08/11 12:19
948F:推 scatology: KKKKKKKKKKKKK 08/11 12:19
949F:→ lmf770410: Kkkkkkkkk 08/11 12:19
950F:推 Edison1174: K 08/11 12:19
951F:→ pirson: 96+ cutter 当然恶心啊 哈哈 08/11 12:19
952F:→ sharkhead: 97的伸卡喔!!??挖靠 08/11 12:19
953F:→ yushenlin: KKKKKKKKK 08/11 12:19
954F:推 d90: 98mph还下坠,怎麽打阿 08/11 12:19
955F:→ lmf770410: Britton就是稳 08/11 12:19
956F:→ frankalex15: 98.......掉成这样 08/11 12:19
957F:→ cdpicker: 这甚麽鬼球??!! 08/11 12:19
958F:→ yankees733: 他的伸卡是火球级的 08/11 12:19
959F:推 kauw: 是伸卡还卡特 搞的我好乱? 08/11 12:20
960F:推 benlinskyin: 超恶心XD 08/11 12:20
961F:→ hyk32166: 那颗不是卡特... 08/11 12:20
962F:推 charles20267: 速度这麽快的可怕伸卡 08/11 12:20
963F:推 Finn5566: 这打者姿势有点像A-ROD 08/11 12:20
964F:→ hu610346: 好恶喔 08/11 12:20
965F:→ cdpicker: MO是很准速度也很棒 08/11 12:20
966F:推 youngsam: 牛棚没人了啊 08/11 12:20
967F:→ sharkhead: 他丢球感觉也不是很用力 08/11 12:20
968F:→ youngsam: 昨天烧完了,还一个进DL 08/11 12:21
969F:推 scatology: 金莺要是今天只用两个投手的话可以让牛棚好好休息 08/11 12:21
970F:推 sxxs: XDDDDDDDDD 08/11 12:21
971F:推 vul3yk6m06: H 08/11 12:21
972F:推 yankees733: 99mph被打 08/11 12:21
973F:→ scatology: NO~~~~ 08/11 12:21
974F:推 kerkerkerbe: XDD 08/11 12:21
975F:推 fred0755: ......这样安打.... 08/11 12:21
976F:→ hergan: ............ 08/11 12:21
977F:推 lmf770410: 幸运安 08/11 12:21
978F:→ sharkhead: 剧场来了 08/11 12:21
979F:推 mochiQ: 囧 08/11 12:22
980F:推 epw: ?? 谁进DL? 08/11 12:22
981F:推 a23644910: 拜托守住 08/11 12:22
982F:推 LAGOD: 胜投要掰了 08/11 12:22
983F:→ cdpicker: 西雅图高志纲?? 08/11 12:22
984F:推 alex813: 好刺激 08/11 12:22
985F:→ kerkerkerbe: 要搞了? 08/11 12:22
986F:推 HonusWagner: 高志纲安打 08/11 12:22
987F:推 Edison1174: 又是高志纲弹跳 08/11 12:22
988F:→ sxxs: 笑了 XD 08/11 12:22
989F:推 tnl0716: 拜托守住伟殷的分数阿阿阿 08/11 12:22
990F:推 botno1: 喔喔 原来是伸卡,球速真快 08/11 12:22
991F:推 d90: 伸卡,卡特都直球系列的吧,不过不管如何97,98的伸卡卡特都 08/11 12:22
992F:推 sonesnsdsosi: 伸卡滚滚安 08/11 12:22
993F:→ youngsam: 明天还是休息好久才先发的Tillman 08/11 12:22
994F:推 pirson: Sinker not Cutter sorry~ 08/11 12:22
995F:→ yushenlin: O'day人勒 08/11 12:22
996F:推 cheeky2115: 全民打棒球这种安打很呕 08/11 12:22
997F:→ lmf770410: 蚵嗲让他休息吧 08/11 12:22
998F:推 waiting0801: 拜托锁住 08/11 12:22
999F:推 MetalChao: 陈伟殷做鬼脸 XDDD 08/11 12:22
1000F:→ charles20267: 抓到了,扮鬼脸 08/11 12:22
1001F:→ sxxs: 99 08/11 12:23
1002F:→ yankees733: 99mph 08/11 12:23
1003F:推 kauw: 上一次BROTTON砸掉陈胜投就是一堆鸟滚 菜2B一直守不下来 08/11 12:23
1004F:推 hu610346: 陈伟殷好帅 还扮鬼脸 08/11 12:23
1005F:→ hergan: 98 99 08/11 12:23
1006F:→ cheeky2115: 99!!!!!!! 08/11 12:23
1007F:推 mannyharris: 陈伟殷在干嘛XD 08/11 12:23
1008F:推 sony1256: 左投99...好可怕 08/11 12:23
1009F:→ HonusWagner: K味浓 08/11 12:23
1010F:推 snth0705: 拜托K一下 08/11 12:23
1011F:→ d90: 99!! 08/11 12:23
1012F:→ sharkhead: 他握四缝不知道能不能跟查普曼拚球速? 08/11 12:23
1013F:推 scatology: 来啦 三振他! 08/11 12:23
1014F:→ yankees733: KKKKKKKK 08/11 12:23
1015F:→ alex813: KKKKKKKKKKK 08/11 12:23
1016F:→ lmf770410: Kkkkkkkkkk 08/11 12:23
1017F:→ MetalChao: KKKKK 08/11 12:23
1018F:→ hergan: KKK! 08/11 12:23
1019F:推 henry860520: KKKKKKKKKKKK 08/11 12:23
1020F:→ yushenlin: Chen跟Uball聊很爽 08/11 12:23
1021F:→ anne1201w: KKKKKKKKKKKK 08/11 12:23
1022F:→ scatology: kkkkkkkkkkkkkkkkkk 08/11 12:23
1023F:→ sxxs: 99 -> 86 @_@ 08/11 12:23
1024F:→ cheeky2115: 变化球欸!!!! 08/11 12:23
1025F:→ mannyharris: KKKKK 08/11 12:23
1026F:推 kerkerkerbe: KK 08/11 12:23
1027F:推 a23644910: kkkkk 08/11 12:23
1028F:推 cdpicker: KKKKKKKKKKKKKKKKKKKKKK 08/11 12:23
1029F:推 FK84288: KKKKKKKK 08/11 12:23
1030F:推 Beanoodle: kkkkkkkkk 08/11 12:23
1031F:→ hu610346: 无解 这配球好可怕……原来还有这变速球 08/11 12:23
1032F:推 ttnakafzcm: 这局下庄 08/11 12:23
1033F:推 talentchih: 他投4-seam应该可以破百吧 08/11 12:24
1034F:推 d06: 超猛!!! 08/11 12:24
1035F:推 v612138: 送!KKKKKKK 08/11 12:24
1036F:→ yushenlin: 这球郝威 08/11 12:24
1037F:推 epw: Chen : 钱难赚 , U-Ball : 是呀 08/11 12:24
1038F:推 kgis210921: 这颗变速真水 08/11 12:24
1039F:→ snth0705: 某L哭哭 08/11 12:24
1040F:推 jamie3160003: 靠这个妖怪 还有滑球喔 08/11 12:24
1041F:推 fred0755: 她球路不少好吗 只是对手用直球就可以了 08/11 12:24
1042F:推 peanut7516: 水啦,结算 08/11 12:24
1043F:→ kauw: ODAY连上两天 ..不能再上了..金鸟丢掉HUNTER OK 但要补牛阿 08/11 12:24
1044F:推 chou001002: 来个小滑球~ 08/11 12:24
1045F:→ cheeky2115: 这是滑球吗 arsenal没有变速这球种 08/11 12:24
1046F:推 bengowa: 突然来个滑球 op 08/11 12:24
1047F:推 wahaha888: 99mph二缝线实在太杀 08/11 12:24
1048F:推 andy02: 超强 08/11 12:24
1049F:→ cdpicker: MLB一堆鬼神 08/11 12:25
1050F:→ epw: 金鸟打顺的话应该会再捡waiver吧 08/11 12:25
1051F:→ weijunW: Britton球路的轨迹怎麽不太像常见的速球啊...到水管找影 08/11 12:25
1052F:推 ugly4: 陈下场了我们要开始得分了 08/11 12:25
1053F:推 hyk32166: Britton以前是先发 可以投比较长(? 08/11 12:25
1054F:→ weijunW: 片时,似乎老歪不觉得有啥特别的?!影片意外的少... 08/11 12:25
1055F:→ yushenlin: Fox要播德甲耶 拜仁慕尼黑~~ 08/11 12:25
1056F:推 lai162: 再上O'Day就要改名everyday了= = 08/11 12:25
1057F:→ tnl0716: 印象中Britton以前先发很炸 08/11 12:26
1058F:→ epw: 金莺一堆牛棚以前都是先发呀 XD...... 08/11 12:26
1059F:推 d90: 水手球场测速应该有快一点,之前Britton球速看都96,97,今 08/11 12:26
1060F:推 hu610346: 今天陈伟殷胜投 义大再赢就完美了 08/11 12:26
1061F:→ d90: 今天快1mph 08/11 12:26
1062F:推 lmf770410: 马力欧CD 08/11 12:27
1063F:推 andy02: every day满有梗的XD 08/11 12:27
1064F:推 pirson: 这支转後援以後 猛猛der 速球+5 mile 整个有压制力 08/11 12:27
1065F:推 cheeky2115: Hunter Matsuz Britton 都先发啊 08/11 12:27
1066F:推 youngsam: 昨天牛棚吃6局,今天能休息真的是比较好 08/11 12:27
1067F:→ epw: 养差了就变牛了 Britton , Brach , Mcfarland , Matusz 08/11 12:28
1068F:推 a27647535: Hunter被丢了? 08/11 12:28
1069F:→ epw: O'day -> Allday 08/11 12:28
1070F:推 kauw: BRITTON不就MO翻板 当先发球种不够一轮後会爆 08/11 12:28
1071F:→ cheeky2115: 被交易 08/11 12:28
1072F:→ a27647535: 喔喔 08/11 12:28
1073F:→ epw: hunter换今天的RF lake , 结果Hunter去小熊还是正常表现 08/11 12:29
1074F:推 lmf770410: H 08/11 12:29
1075F:推 cdpicker: Wieters 6尺5 好高啊 08/11 12:29
1076F:→ kauw: 转牛棚可以摧球速阿 会快一点 王MLB生涯最快就对金鸟CP投的 08/11 12:29
1077F:推 henry860520: HH 08/11 12:29
1078F:推 bengowa: 陈今天感觉心情很好 08/11 12:29
1079F:→ kauw: HUNTRE换LAKE 双输?XD 不过金鸟为了省钱拉.. 08/11 12:29
1080F:→ a27647535: 正常砸锅吗 XD 08/11 12:30
1081F:推 lmf770410: NP.... 08/11 12:30
1082F:推 cheeky2115: 美凤有约 暂停播出 08/11 12:30
1083F:推 sean90330: 陈:今天心情好就不摔手套了 08/11 12:30
1084F:→ kauw: 王收涯惟一SV就有投到97 对金鸟拿下SV 虽然抖抖的 哈哈 08/11 12:30
1085F:→ epw: 目前Hunter在小熊 : 3IP 3ER (2HR) , 1 Save 1 Hold 08/11 12:30
1086F:→ epw: 容易被全垒打的老毛病一样,不过略胜一些小熊牛棚.... 08/11 12:31
1087F:→ epw: 换Lake应该小赚吧 Hunter这两年状况明显往下滑 08/11 12:32
1088F:推 lmf770410: 湖人根本自杀棒 08/11 12:32
1089F:推 Edison1174: LAKE马上KKK 08/11 12:32
1090F:推 liunwaiqoo: Britton先发很悲剧.....转职CL整个变鬼神....... 08/11 12:32
1091F:→ liunwaiqoo: 99麦的伸卡控球又准,打者打个洨........... 08/11 12:33
1092F:推 chivalry1987: 超废的Lake 光名字就输一半了 08/11 12:33
1093F:推 kauw: 湖人 人人很可欺 坦主不意外 08/11 12:33
1094F:推 botno1: 下局精彩了XDDDDD 08/11 12:33
1095F:→ aa40105: 接下来都强棒...加油守住啊 08/11 12:33
1096F:推 fred0755: 这棒怎能先发阿 废到爆 08/11 12:33
1097F:推 lmf770410: 裤子....... 08/11 12:34
1098F:→ kauw: SNIDER PARMELEE LOUGH LAKER 你想看那个?谁比较废?很难挑 08/11 12:34
1099F:推 alex813: 姐姐竟然失误!?!?! 08/11 12:35
1100F:推 henry860520: EEEE 08/11 12:35
1101F:推 Edison1174: E 08/11 12:35
1102F:推 sharkhead: UG8上身 08/11 12:35
1103F:推 lmf770410: 姐姐............ 08/11 12:35
1104F:→ benlinskyin: E 08/11 12:35
1105F:推 O10lOl01O: 剧场! 08/11 12:35
1106F:推 fred0755: 搞辟阿 最後失误 08/11 12:35
1107F:推 q77777892: .......... 08/11 12:35
1108F:推 s512874690: 姐姐! 08/11 12:35
1109F:推 dragon49er: N4上身 08/11 12:35
1110F:嘘 scatology: ............ 08/11 12:35
1111F:→ Edison1174: N4上身 08/11 12:35
1112F:推 mannyharris: 姐姐竟然失误 08/11 12:35
1113F:推 NowQmmmmmmmm: N4上身 08/11 12:35
1114F:推 botno1: 第一颗变化球XDDDDDDD 08/11 12:35
1115F:推 eric02396: 美国N4 08/11 12:36
1116F:→ kauw: 记得前年还是大前年 对手手被金江审搞掉胜投? 08/11 12:36
1117F:→ lmf770410: 好人卡诺,来颗双杀吧 08/11 12:36
1118F:推 epw: Lough好了 防守好一点 08/11 12:36
1119F:推 kreator666: ... 08/11 12:36
1120F:→ benlinskyin: 台湾之友来个DP 08/11 12:36
1121F:推 chivalry1987: N4 是你 08/11 12:36
1122F:→ aa40105: ...要开剧场了 08/11 12:36
1123F:→ O10lOl01O: 自杀棒Cano 安全到不行^o^ 08/11 12:36
1124F:→ epw: 今天好人Cano来了 08/11 12:36
1125F:→ liunwaiqoo: DP!!!!!!!!!!!!!!!!!! 08/11 12:36
1126F:→ s512874690: 陈伟殷紧张了XD 08/11 12:36
1127F:推 a23644910: dp 08/11 12:36
1128F:推 lmf770410: 真的双杀XDDDDDDDDDDDDDD 08/11 12:36
1129F:→ benlinskyin: XDDDDDDDDDDDDDDDDDDDD 08/11 12:36
1130F:→ fred0755: DP!!!!!!!!!!!!!!!!!!!!!!!! 08/11 12:36
1131F:推 henry860520: DDDPPP 08/11 12:36
1132F:→ eric02396: DPPPPPPPPPP 08/11 12:36
1133F:推 alex813: Cano今天大好人呀XDDDDDDDDDD 08/11 12:36
1134F:推 he02341997: 台湾之友! 08/11 12:36
1135F:推 rapf1111: 真的dp 08/11 12:36
1136F:→ mannyharris: DPPPP 08/11 12:36
1137F:推 yankees733: Cano台湾之友 08/11 12:37
1138F:→ NowQmmmmmmmm: 人也太好 08/11 12:37
1139F:→ aa40105: XDDD 08/11 12:37
1140F:推 q77777892: DP耶 08/11 12:37
1141F:→ s512874690: 谢谢你 Cano 08/11 12:37
1142F:推 bengowa: cano台湾之友 08/11 12:37
1143F:推 jasonccr: DPPPPPPPPPPPPPPPPPPPPPPPPPPPPPPPPPPPPPPPPPPPPPPPPP 08/11 12:37
1144F:→ a23644910: 不愧是台湾之友 08/11 12:37
1145F:→ fred0755: 太爽啦 08/11 12:37
1146F:推 kinkijun: (*゚▽゚)ノ 08/11 12:37
1147F:推 mepass: 好到没话说 08/11 12:37
1148F:→ benlinskyin: 真的双杀了XDDDDDDDD 08/11 12:37
1149F:→ lmf770410: ==============MVP: Cano============ 08/11 12:37
1150F:推 yuan1205: 台湾之友!!!! 08/11 12:37
1151F:推 tnl0716: 谢谢你 cano 08/11 12:37
1152F:→ kauw: CANO:台多友好 08/11 12:37
1153F:→ liunwaiqoo: 这不是台湾之友什麽才是台湾之友?????? 08/11 12:37
1154F:→ epw: Cano : 需要再一颗传丢的球打头,谢谢 08/11 12:37
1155F:→ q77777892: 感谢Cano! 08/11 12:37
1156F:推 okplaymayday: 刚刚听到主播发音很像Derek Lowe的球员是谁 08/11 12:37
1157F:→ NowQmmmmmmmm: CANO年底再来台湾吧 请你吃夜市 08/11 12:37
1158F:→ yankees733: 要来台湾玩吗 08/11 12:37
1159F:推 LAGOD: cano竟然烂成这样 08/11 12:37
1160F:→ epw: 泄泄你 Cano 08/11 12:37
1161F:→ eric02396: HI Cano \(〞︶〝*) 戳戳 08/11 12:37
1162F:→ tnl0716: 陈伟殷宵夜是不是请错人拉 都请Cano了XD 08/11 12:37
1163F:→ liunwaiqoo: 投的很轻松却有98麦.................. 08/11 12:38
1164F:推 helloit: Cano今天上场共花几颗球~ 08/11 12:38
1165F:推 verybiggun: Cano今天几打席几球啊??? 08/11 12:38
1166F:→ mepass: 可以直接颁奖了 08/11 12:38
1167F:推 boyen0917: 刚换上的左外野手 08/11 12:38
1168F:推 botno1: Cano不愧是台湾之子 08/11 12:38
1169F:→ epw: 今天的坏人来了 08/11 12:38
1170F:→ lmf770410: 漂亮的变化球 08/11 12:38
1171F:→ liunwaiqoo: 变化球85麦这速差.......而且是好球.......... 08/11 12:38
1172F:推 wolfwang: 台湾之友 是你!!!! 08/11 12:38
1173F:→ epw: SV: Britton & Cano , MVP : Cano 08/11 12:38
1174F:推 s512874690: Cano四打席6颗的样子 08/11 12:39
1175F:→ woulin: Cano来台湾玩 我送他一箱阿Q统面 08/11 12:39
1176F:→ mepass: 想说cano怎麽在等球 原来是在选双杀 08/11 12:39
1177F:推 wh0386: 4次上来 7个球 08/11 12:39
1178F:→ liunwaiqoo: 这只光靠滑球和伸卡当CL就能屠杀MLB了吧 08/11 12:39
1179F:→ epw: mepass: 想说cano怎麽在等球 原来是在选双杀 XDDDD 08/11 12:39
1180F:推 lmf770410: 赢不了就蚕豆你 08/11 12:40
1181F:推 LAGOD: cano今天4打席5出局数 08/11 12:40
1182F:推 fred0755: 好黏喔操 08/11 12:40
1183F:推 snth0705: 蚕豆中 08/11 12:40
1184F:推 s512874690: 蚕豆 08/11 12:41
1185F:推 O10lOl01O: Gutty好威 08/11 12:41
1186F:推 mochiQ: 是在黏什麽啦 08/11 12:41
1187F:推 abxtpml56: Cano可能看到先发来自TAIWAN就心软了 08/11 12:41
1188F:→ epw: Cano落寞的回到休息室,发现柜子前叠了五碗阿Q桶面 08/11 12:41
1189F:推 liunwaiqoo: 欧爸了~~~~~~~~~~~~~~~~ 08/11 12:41
1190F:→ O10lOl01O: double 08/11 12:41
1191F:推 jasonccr: 2b = = 08/11 12:41
1192F:推 NowQmmmmmmmm: 吓死 08/11 12:41
1193F:推 hergan: 长打.. 08/11 12:41
1194F:嘘 scatology: 别闹阿....... 08/11 12:41
1195F:推 nextpage: 变数来了 08/11 12:41
1196F:推 hu610346: 陈伟殷:RRRRRRERRRR 08/11 12:41
1197F:推 loveazure: 还好有Cano 08/11 12:41
1198F:→ LAGOD: 还好有cano 08/11 12:41
1199F:→ abxtpml56: >< 08/11 12:41
1200F:推 jamie3160003: 还好有cano当夹心饼乾!! 08/11 12:42
1201F:→ O10lOl01O: 飞很远喔 差点尻 08/11 12:42
1202F:推 kauw: CP不能投太多局 不然会有意外.. 08/11 12:42
1203F:推 tnl0716: 呃…不要阿阿阿 08/11 12:42
1204F:推 a23644910: 没差 自杀棒 08/11 12:42
1205F:→ liunwaiqoo: 98麦的伸卡被逮中........ 08/11 12:42
1206F:→ waiting0801: = = 08/11 12:42
1207F:→ abxtpml56: cano又拿棒子上来 08/11 12:42
1208F:推 benlinskyin: 真的还好有Cano 08/11 12:42
1209F:→ O10lOl01O: Cano打席的价值在这一刻彻底表现 08/11 12:42
1210F:→ woulin: 如果Cano 也上垒 搞不好就追平 08/11 12:42
1211F:→ s512874690: 谢谢你 Cano 08/11 12:42
1212F:推 lazuritechen: Cano谢谢你 08/11 12:42
1213F:→ waiting0801: 一瞬间我以为飞出去= = 08/11 12:42
1214F:推 he02341997: 看起来球没有很快就98 99 08/11 12:42
1215F:→ benlinskyin: 99 08/11 12:42
1216F:→ aa40105: ...紧张 08/11 12:42
1217F:推 bengowa: 99麦 08/11 12:42
1218F:推 GentleJena: 今天是不是快乐枪啊 08/11 12:43
1219F:推 epw: A-Jox? 收工收工.... 08/11 12:43
1220F:推 star90237: 99连发 08/11 12:43
1221F:→ loveazure: 今天测速枪真的比较快? 08/11 12:43
1222F:→ hergan: 用内角逼迫出棒 抢好球 08/11 12:43
1223F:→ scatology: Cano今天真棒!!!!! 08/11 12:43
1224F:→ jamie3160003: cano:看吧!患难见真情 08/11 12:43
1225F:推 verybiggun: 阿Q桶面的梗是??? 08/11 12:43
1226F:→ woulin: CL投这麽多球 下一场大概无法出赛 08/11 12:43
1227F:推 sincere77: wp 08/11 12:43
1228F:推 nextpage: ...... 08/11 12:43
1229F:→ liunwaiqoo: 用球数30控球有点跑掉了 08/11 12:43
1230F:→ O10lOl01O: 3B 08/11 12:43
1231F:推 mochiQ: 剧场qq 08/11 12:43
1232F:推 snth0705: 守住啊 08/11 12:43
1233F:推 d90: 剧场 08/11 12:43
1234F:→ s512874690: 别来乱啊啊啊啊 08/11 12:44
1235F:→ loveazure: Britton加油啊 08/11 12:44
1236F:→ waiting0801: 拜托锁住 08/11 12:44
1237F:推 st941101: 阿Q是他爸啊 08/11 12:44
1238F:推 kauw: 所以说不能当先发阿 不要一轮 两局就要爆了 08/11 12:44
1239F:→ liunwaiqoo: 赏他一颗99麦跟他对决~~~ 08/11 12:44
1240F:→ epw: 统一洋将阿Q是Cano老爸呀 08/11 12:44
1241F:推 jasonccr: 来个k 08/11 12:44
1242F:推 mepass: Cano也开始紧张了 08/11 12:44
1243F:→ waiting0801: 知道阿Q的也应该都有点年纪了XD 08/11 12:44
1244F:→ O10lOl01O: 这两棒都好黏 08/11 12:44
1245F:→ s512874690: 一直缠斗 08/11 12:44
1246F:→ O10lOl01O: Britton太早上 有机会 08/11 12:45
1247F:→ liunwaiqoo: 不死三振.......................... 08/11 12:45
1248F:推 alex813: XDDDDDDDDDDD 08/11 12:45
1249F:推 ddreamer: 太扯 08/11 12:45
1250F:推 henry860520: GGGG 08/11 12:45
1251F:推 sincere77: 不死三振XDD 08/11 12:45
1252F:→ O10lOl01O: 掉分 08/11 12:45
1253F:推 nextpage: 剧场啊 08/11 12:45
1254F:推 he02341997: ... 08/11 12:45
1255F:推 hergan: 不死K .. 08/11 12:45
1256F:推 a23644910: ..... 08/11 12:45
1257F:→ benlinskyin: 不死三振... 08/11 12:45
1258F:嘘 h034826567: ............ 08/11 12:45
1259F:推 bengowa: ...... 08/11 12:45
1260F:嘘 a7107772: 三小..... 08/11 12:45
1261F:→ jasonccr: 不死三振= = 08/11 12:45
1262F:推 abxtpml56: 这剧本…… 08/11 12:45
1263F:→ kauw: 跨局投就是风险 第8局就上 08/11 12:45
1264F:→ charles20267: 剧场剧场 08/11 12:45
1265F:推 NowQmmmmmmmm: 在干嘛= = 08/11 12:45
1266F:推 d90: 不死三振,昏倒 08/11 12:45
1267F:嘘 cdpicker: ............... 08/11 12:45
1268F:推 mannyharris: 不死三振..... 08/11 12:45
1269F:推 eric02396: 美国达哄 08/11 12:45
1270F:推 travis2329: …… 08/11 12:45
1271F:推 kinkijun: 这杀小 08/11 12:45
1272F:推 XDDDD5566: 结束了 08/11 12:45
1273F:→ s512874690: 是有没有这麽惨 08/11 12:45
1274F:推 whipzj: 我没看过阿Q打过球 但因爲是老王队友才知道阿Q 08/11 12:45
1275F:嘘 scatology: Britton该换了吧......... 太多球了 08/11 12:45
1276F:→ d06: ......../ 08/11 12:45
1277F:推 ohiyo104: 太神了.... 08/11 12:46
1278F:→ liunwaiqoo: 捕手在欉三洨............ 08/11 12:46
1279F:→ woulin: 被打一轰就逆转了 08/11 12:46
1280F:推 verybiggun: Cano爸来过台湾打球喔? 08/11 12:46
1281F:→ hergan: CP真的不能乱偷局数 08/11 12:46
1282F:推 suika824: 有够惨.. 08/11 12:46
1283F:→ benlinskyin: 傻眼 08/11 12:46
1284F:嘘 q77777892: 捕什麽逸啦 08/11 12:46
1285F:嘘 qwqw0424: ......... 08/11 12:46
1286F:推 tonycowzz: 这是在演漫画吗 08/11 12:46
1287F:推 chucky: 补益 08/11 12:46
1288F:→ XDDDD5566: ....看gameday还以为结束了 08/11 12:46
1289F:推 lenz25217: 神剧本 08/11 12:46
1290F:推 mochiQ: 陈要拿胜投真的很困难XD 08/11 12:46
1291F:嘘 MachoMan217: ...... 08/11 12:46
1292F:→ alex813: 太刺激了 08/11 12:46
1293F:推 frankalex15: 太低了吧XDDD 08/11 12:46
1294F:推 botno1: 靠 补逸吗 08/11 12:46
1295F:推 salazopyrin: 搞丢胜投的节奏啊 08/11 12:46
1296F:→ hergan: 挥棒打坏球XD 08/11 12:46
1297F:推 waiting0801: 这...= = 08/11 12:46
1298F:→ kauw: 修华特前天5:0还在派ODAY 想什麽? 造成今天不能用 08/11 12:46
1299F:→ benlinskyin: 就阿Q 08/11 12:46
1300F:推 usausausa: 盲剑客总该结束了吧 08/11 12:46
1301F:推 TaiwanJunior: Cano 的老爸以前来台湾打职棒的登录名是"阿 Q" 08/11 12:46
1302F:→ Xiong271: 还好中间CANO有上场救援 首下两个出局数 08/11 12:46
1303F:→ liunwaiqoo: KKKKKKKKKKKKKKKKKKKKKKKKK 08/11 12:47
1304F:推 Edison1174: Win!!!!!!!!!!!!!!!!!!!!!!!!!!!!!!! 08/11 12:47
1305F:→ O10lOl01O: 这只打的很烂 我看K定了 08/11 12:47
1306F:推 MrChief: 恭喜代表美国巴尔的摩队的陈伟殷成为胜利投手!! 08/11 12:47
1307F:推 lmf770410: =============== Win =============== 08/11 12:47
1308F:推 mowkow0611: =====================结束了=============胜投 08/11 12:47
1309F:推 bengowa: 结束~~~~~ 08/11 12:47
1310F:→ alex813: 胜投Get!!!!!!!!! 08/11 12:47
1311F:推 a23644910: kkkkkk 08/11 12:47
1312F:推 epw: 胖蒙? 应该会GG喇 大误耶 08/11 12:47
1313F:推 yankees733: KKKKKKKKK 08/11 12:47
1314F:→ hergan: 狂打坏球XD 08/11 12:47
1315F:推 henry860520: XDDDDDDDDDDDDD 08/11 12:47
1316F:推 nextpage: 幸好 08/11 12:47
1317F:→ q77777892: 总算QQQQQQQQ 08/11 12:47
1318F:推 jasonccr: KKKKKKKKKKKKKKKKKKKKKKKKKKKKKKKKK 08/11 12:47
1319F:推 he02341997: 终於阿 08/11 12:47
1320F:嘘 lazuritechen: 今年金莺能进季後赛也只是陪打吧... 08/11 12:47
1321F:→ kauw: 拖台钱干嘛 08/11 12:47
1322F:推 KY1998: KK 08/11 12:47
1323F:→ usausausa: 哈哈 连三挥 08/11 12:47
1324F:推 ddreamer: 收工 08/11 12:47
1325F:推 snth0705: 再见三振!!! 08/11 12:47
1326F:→ ohiyo104: 这啥XDDDDDDDDDDD 08/11 12:47
1327F:→ benlinskyin: 差点又掉.... 08/11 12:47
1328F:推 s512874690: 接到了 08/11 12:47
1329F:→ scatology: 再见k 08/11 12:47
1330F:推 jamie3160003: 差点又漏接XDDD 08/11 12:47
1331F:推 cdpicker: 这球接到了XDDDDDDDDDDD 08/11 12:47
1332F:推 samggyy: 我们赢啦~ 08/11 12:47
1333F:推 NowQmmmmmmmm: = =吓死 08/11 12:47
1334F:推 mannyharris: 陈笑的很开心 08/11 12:47
1335F:推 abxtpml56: 好险 08/11 12:47
1336F:→ epw: 还不是靠前洋基大物 08/11 12:47
1337F:推 a27647535: 他的情绪也太明显了吧 XDDDD 08/11 12:47
1338F:推 charles20267: 差点又要捕逸 08/11 12:47
1339F:推 yushenlin: 终於结束啦 08/11 12:47
1340F:→ lmf770410: 大家可以回家了 08/11 12:47
1341F:推 chivalry1987: 这个接的到 刚漏掉... 08/11 12:47
1342F:推 g25701973: 一定知道乡民在关注故意投抖一点 08/11 12:47
1343F:推 star90237: 主审拯救了比赛... 08/11 12:47
1344F:→ jamie3160003: 谢谢 拜拜 08/11 12:48
1345F:→ benlinskyin: 单场MVP:Cano 08/11 12:48
1346F:推 a45: Cano爸是统一的阿Q 08/11 12:48
1347F:→ epw: Montero 真的很.......... 08/11 12:48
1348F:→ s512874690: 今日SV: Cano 08/11 12:48
1349F:推 phoenixamare: 拖了这麽久 最後还是赢了 08/11 12:48
1350F:→ liunwaiqoo: 这只不就是拿去换松焦油的大物补手吗? 08/11 12:48
1351F:→ epw: 裁判:今天SV由Britton和Cano共享 08/11 12:48
1352F:推 mepass: Cano用心良苦 08/11 12:48
1353F:推 pirson: Britton: 1R 0ER 爽多赚1K 08/11 12:49
1354F:→ epw: ya 现在变1B 有变瘦了喇.... 08/11 12:49
1355F:→ lmf770410: ===========卡诺价值展露无遗=========== 08/11 12:49
1356F:推 verybiggun: 多丢的一分算谁的??? 08/11 12:49
1357F:推 waiting0801: 最後也真的太刺激了....这剧场XD 还是要谢谢Cano XD 08/11 12:49
1358F:推 yankees733: 没Cano就被追平了 08/11 12:50
1359F:→ epw: JJ的呀 XD E 08/11 12:50
1360F:→ liunwaiqoo: 陈今天的直球超杀,状况很好!!!!!! 08/11 12:50
1361F:推 st941101: 建仔以警告这样! 08/11 12:50
1362F:推 chucky: 多丢的那分算捕手的 08/11 12:51
1363F:→ liunwaiqoo: 陈伟殷生涯对美西球队真的很杀,FA转去美西应该很爽 08/11 12:51
1364F:推 O10lOl01O: ===========谢谢你 Cano============== 08/11 12:51
1365F:→ youngsam: 丢分应该没算ER 08/11 12:51
1366F:推 usausausa: 去条子啊 达比修+黑魔使 08/11 12:54
1367F:推 mepass: 4打席7球5出局 极有效率 08/11 12:54
1368F:推 epw: 今天Cano状况绝佳 只花了(别人)7球就抓到5个出局数 08/11 12:57
1369F:推 ichiyo: 某人真是不意外,想人肉ID还人肉错www 马上乱拿其他球员来 08/11 14:57
1370F:→ ichiyo: 攻击w 可以算豪洨推文吗XDDD 08/11 14:58
1371F:推 mike5312: 就说转去天使 没人要听 08/11 15:06







like.gif 您可能会有兴趣的文章
icon.png[问题/行为] 猫晚上进房间会不会有憋尿问题
icon.pngRe: [闲聊] 选了错误的女孩成为魔法少女 XDDDDDDDDDD
icon.png[正妹] 瑞典 一张
icon.png[心得] EMS高领长版毛衣.墨小楼MC1002
icon.png[分享] 丹龙隔热纸GE55+33+22
icon.png[问题] 清洗洗衣机
icon.png[寻物] 窗台下的空间
icon.png[闲聊] 双极の女神1 木魔爵
icon.png[售车] 新竹 1997 march 1297cc 白色 四门
icon.png[讨论] 能从照片感受到摄影者心情吗
icon.png[狂贺] 贺贺贺贺 贺!岛村卯月!总选举NO.1
icon.png[难过] 羡慕白皮肤的女生
icon.png阅读文章
icon.png[黑特]
icon.png[问题] SBK S1安装於安全帽位置
icon.png[分享] 旧woo100绝版开箱!!
icon.pngRe: [无言] 关於小包卫生纸
icon.png[开箱] E5-2683V3 RX480Strix 快睿C1 简单测试
icon.png[心得] 苍の海贼龙 地狱 执行者16PT
icon.png[售车] 1999年Virage iO 1.8EXi
icon.png[心得] 挑战33 LV10 狮子座pt solo
icon.png[闲聊] 手把手教你不被桶之新手主购教学
icon.png[分享] Civic Type R 量产版官方照无预警流出
icon.png[售车] Golf 4 2.0 银色 自排
icon.png[出售] Graco提篮汽座(有底座)2000元诚可议
icon.png[问题] 请问补牙材质掉了还能再补吗?(台中半年内
icon.png[问题] 44th 单曲 生写竟然都给重复的啊啊!
icon.png[心得] 华南红卡/icash 核卡
icon.png[问题] 拔牙矫正这样正常吗
icon.png[赠送] 老莫高业 初业 102年版
icon.png[情报] 三大行动支付 本季掀战火
icon.png[宝宝] 博客来Amos水蜡笔5/1特价五折
icon.pngRe: [心得] 新鲜人一些面试分享
icon.png[心得] 苍の海贼龙 地狱 麒麟25PT
icon.pngRe: [闲聊] (君の名は。雷慎入) 君名二创漫画翻译
icon.pngRe: [闲聊] OGN中场影片:失踪人口局 (英文字幕)
icon.png[问题] 台湾大哥大4G讯号差
icon.png[出售] [全国]全新千寻侘草LED灯, 水草

请输入看板名称,例如:BuyTogether站内搜寻

TOP